Time,TemperatureF,DewpointF,PressureIn,WindDirection,WindDirectionDegrees,WindSpeedMPH,WindSpeedGustMPH,Humidity,HourlyPrecipIn,Conditions,Clouds,dailyrainin,SoftwareType,DateUTC
2013-06-19 00:00:00,55.4,44.2,29.90,ESE,112,0.0,0.0,66,0.00,CLR,,0.00,WeatherDisplay:10.37,2013-06-19 04:00:00,
2013-06-19 00:01:00,55.2,44.4,29.90,ESE,112,0.0,0.0,67,0.00,CLR,,0.00,WeatherDisplay:10.37,2013-06-19 04:01:00,
2013-06-19 00:06:00,55.2,44.4,29.90,ESE,112,0.0,0.0,67,0.00,CLR,,0.00,WeatherDisplay:10.37,2013-06-19 04:06:00,
2013-06-19 00:11:00,55.0,44.3,29.90,ESE,112,0.0,0.0,67,0.00,CLR,,0.00,WeatherDisplay:10.37,2013-06-19 04:11:00,
2013-06-19 00:16:00,54.9,44.5,29.90,ESE,112,0.0,0.0,68,0.00,CLR,,0.00,WeatherDisplay:10.37,2013-06-19 04:16:00,
2013-06-19 00:21:00,54.9,44.9,29.90,ESE,112,0.0,0.0,69,0.00,CLR,,0.00,WeatherDisplay:10.37,2013-06-19 04:21:00,
2013-06-19 00:22:00,54.7,44.7,29.90,ESE,112,0.0,0.0,69,0.00,CLR,,0.00,WeatherDisplay:10.37,2013-06-19 04:22:00,
2013-06-19 00:26:00,54.5,44.9,29.90,ESE,112,0.0,0.0,70,0.00,CLR,,0.00,WeatherDisplay:10.37,2013-06-19 04:26:00,
2013-06-19 00:27:00,54.7,45.1,29.90,ESE,112,0.0,0.0,70,0.00,CLR,,0.00,WeatherDisplay:10.37,2013-06-19 04:27:00,
2013-06-19 00:31:00,54.5,44.9,29.90,ESE,112,0.0,0.0,70,0.00,CLR,,0.00,WeatherDisplay:10.37,2013-06-19 04:31:00,
2013-06-19 00:32:00,54.5,44.9,29.90,ESE,112,0.0,0.0,70,0.00,CLR,,0.00,WeatherDisplay:10.37,2013-06-19 04:32:00,
2013-06-19 00:37:00,54.5,45.3,29.90,ESE,112,0.0,0.0,71,0.00,CLR,,0.00,WeatherDisplay:10.37,2013-06-19 04:37:00,
2013-06-19 00:42:00,54.9,46.0,29.90,ESE,112,0.0,0.0,72,0.00,CLR,,0.00,WeatherDisplay:10.37,2013-06-19 04:42:00,
2013-06-19 00:47:00,54.9,46.0,29.90,ESE,112,0.0,0.0,72,0.00,CLR,,0.00,WeatherDisplay:10.37,2013-06-19 04:47:00,
2013-06-19 00:52:00,55.0,46.5,29.90,ESE,112,0.0,0.0,73,0.00,CLR,,0.00,WeatherDisplay:10.37,2013-06-19 04:52:00,
2013-06-19 00:53:00,55.2,46.7,29.90,ESE,112,0.0,0.0,73,0.00,CLR,,0.00,WeatherDisplay:10.37,2013-06-19 04:53:00,
2013-06-19 00:57:00,55.0,46.5,29.90,ESE,112,0.0,0.0,73,0.00,CLR,,0.00,WeatherDisplay:10.37,2013-06-19 04:57:00,
2013-06-19 00:58:00,55.2,46.7,29.90,ESE,112,0.0,0.0,73,0.00,CLR,,0.00,WeatherDisplay:10.37,2013-06-19 04:58:00,
2013-06-19 01:02:00,55.4,46.9,29.90,ESE,112,0.0,0.0,73,0.00,CLR,,0.00,WeatherDisplay:10.37,2013-06-19 05:02:00,
2013-06-19 01:03:00,55.4,46.9,29.90,ESE,112,0.0,0.0,73,0.00,CLR,,0.00,WeatherDisplay:10.37,2013-06-19 05:03:00,
2013-06-19 01:04:00,55.4,46.9,29.90,ESE,112,0.0,0.0,73,0.00,CLR,,0.00,WeatherDisplay:10.37,2013-06-19 05:04:00,
2013-06-19 01:07:00,56.3,48.1,29.90,ESE,112,0.0,0.0,74,0.00,CLR,,0.00,WeatherDisplay:10.37,2013-06-19 05:07:00,
2013-06-19 01:08:00,56.3,48.1,29.90,ESE,112,0.0,0.0,74,0.00,CLR,,0.00,WeatherDisplay:10.37,2013-06-19 05:08:00,
2013-06-19 01:09:00,56.3,48.5,29.90,ESE,112,0.0,0.0,75,0.00,CLR,,0.00,WeatherDisplay:10.37,2013-06-19 05:09:00,
2013-06-19 01:13:00,56.7,50.2,29.93,ESE,112,0.0,0.0,79,0.00,CLR,,0.00,WeatherDisplay:10.37,2013-06-19 05:13:00,
2013-06-19 01:14:00,56.7,50.2,29.93,ESE,112,0.0,0.0,79,0.00,CLR,,0.00,WeatherDisplay:10.37,2013-06-19 05:14:00,
2013-06-19 01:18:00,57.0,50.2,29.93,ESE,112,1.2,0.0,78,0.00,CLR,,0.00,WeatherDisplay:10.37,2013-06-19 05:18:00,
2013-06-19 01:19:00,57.0,50.2,29.93,ESE,112,0.0,0.0,78,0.00,CLR,,0.00,WeatherDisplay:10.37,2013-06-19 05:19:00,
2013-06-19 01:20:00,57.2,50.7,29.93,NE,45,0.0,0.0,79,0.00,CLR,,0.00,WeatherDisplay:10.37,2013-06-19 05:20:00,
2013-06-19 01:23:00,57.2,50.4,29.93,ENE,68,0.0,0.0,78,0.00,CLR,,0.00,WeatherDisplay:10.37,2013-06-19 05:23:00,
2013-06-19 01:24:00,57.4,50.6,29.93,ENE,68,0.0,0.0,78,0.00,CLR,,0.00,WeatherDisplay:10.37,2013-06-19 05:24:00,
2013-06-19 01:25:00,57.4,50.6,29.93,ENE,68,0.0,0.0,78,0.00,CLR,,0.00,WeatherDisplay:10.37,2013-06-19 05:25:00,
2013-06-19 01:28:00,57.4,49.9,29.93,East,90,0.0,0.0,76,0.00,CLR,,0.00,WeatherDisplay:10.37,2013-06-19 05:28:00,
2013-06-19 01:29:00,57.6,50.4,29.93,East,90,0.0,0.0,77,0.00,CLR,,0.00,WeatherDisplay:10.37,2013-06-19 05:29:00,
2013-06-19 01:30:00,57.6,50.4,29.93,East,90,0.0,0.0,77,0.00,CLR,,0.00,WeatherDisplay:10.37,2013-06-19 05:30:00,
2013-06-19 01:33:00,57.6,50.0,29.93,ESE,112,0.0,0.0,76,0.00,CLR,,0.00,WeatherDisplay:10.37,2013-06-19 05:33:00,
2013-06-19 01:34:00,57.6,49.7,29.93,ESE,112,0.0,0.0,75,0.00,CLR,,0.00,WeatherDisplay:10.37,2013-06-19 05:34:00,
2013-06-19 01:35:00,57.6,50.0,29.93,ESE,112,0.0,0.0,76,0.00,CLR,,0.00,WeatherDisplay:10.37,2013-06-19 05:35:00,
2013-06-19 01:39:00,57.4,49.5,29.93,ESE,112,0.0,0.0,75,0.00,CLR,,0.00,WeatherDisplay:10.37,2013-06-19 05:39:00,
2013-06-19 01:40:00,57.4,49.5,29.93,ESE,112,0.0,0.0,75,0.00,CLR,,0.00,WeatherDisplay:10.37,2013-06-19 05:40:00,
2013-06-19 01:44:00,57.2,49.0,29.93,ESE,112,0.0,0.0,74,0.00,CLR,,0.00,WeatherDisplay:10.37,2013-06-19 05:44:00,
2013-06-19 01:45:00,57.2,49.0,29.93,ESE,112,0.0,0.0,74,0.00,CLR,,0.00,WeatherDisplay:10.37,2013-06-19 05:45:00,
2013-06-19 01:49:00,57.2,49.0,29.93,ESE,112,0.0,0.0,74,0.00,CLR,,0.00,WeatherDisplay:10.37,2013-06-19 05:49:00,
2013-06-19 01:50:00,57.2,49.0,29.93,ESE,112,0.0,0.0,74,0.00,CLR,,0.00,WeatherDisplay:10.37,2013-06-19 05:50:00,
2013-06-19 01:51:00,57.2,49.0,29.93,ESE,112,0.0,0.0,74,0.00,CLR,,0.00,WeatherDisplay:10.37,2013-06-19 05:51:00,
2013-06-19 01:54:00,57.0,48.8,29.93,ESE,112,0.0,0.0,74,0.00,CLR,,0.00,WeatherDisplay:10.37,2013-06-19 05:54:00,
2013-06-19 01:55:00,57.0,48.8,29.93,ESE,112,0.0,0.0,74,0.00,CLR,,0.00,WeatherDisplay:10.37,2013-06-19 05:55:00,
2013-06-19 01:56:00,57.0,49.2,29.93,ESE,112,0.0,0.0,75,0.00,CLR,,0.00,WeatherDisplay:10.37,2013-06-19 05:56:00,
2013-06-19 01:59:00,57.0,49.2,29.93,ESE,112,0.0,0.0,75,0.00,CLR,,0.00,WeatherDisplay:10.37,2013-06-19 05:59:00,
2013-06-19 02:00:00,57.0,49.2,29.93,ESE,112,0.0,0.0,75,0.00,CLR,,0.00,WeatherDisplay:10.37,2013-06-19 06:00:00,
2013-06-19 02:02:00,57.0,48.8,29.93,ESE,112,0.0,0.0,74,0.00,CLR,,0.00,WeatherDisplay:10.37,2013-06-19 06:02:00,
2013-06-19 02:04:00,57.2,49.0,29.93,ESE,112,0.0,0.0,74,0.00,CLR,,0.00,WeatherDisplay:10.37,2013-06-19 06:04:00,
2013-06-19 02:05:00,57.2,49.0,29.93,ESE,112,0.0,0.0,74,0.00,CLR,,0.00,WeatherDisplay:10.37,2013-06-19 06:05:00,
2013-06-19 02:07:00,57.2,49.0,29.93,ESE,112,0.0,0.0,74,0.00,CLR,,0.00,WeatherDisplay:10.37,2013-06-19 06:07:00,
2013-06-19 02:10:00,57.4,49.2,29.93,ESE,112,0.0,0.0,74,0.00,CLR,,0.00,WeatherDisplay:10.37,2013-06-19 06:10:00,
2013-06-19 02:12:00,57.4,49.2,29.93,ESE,112,0.0,0.0,74,0.00,CLR,,0.00,WeatherDisplay:10.37,2013-06-19 06:12:00,
2013-06-19 02:15:00,57.4,48.8,29.93,ESE,112,0.0,0.0,73,0.00,CLR,,0.00,WeatherDisplay:10.37,2013-06-19 06:15:00,
2013-06-19 02:17:00,57.6,49.0,29.93,ESE,112,0.0,0.0,73,0.00,CLR,,0.00,WeatherDisplay:10.37,2013-06-19 06:17:00,
2013-06-19 02:20:00,57.6,48.6,29.93,ESE,112,0.0,0.0,72,0.00,CLR,,0.00,WeatherDisplay:10.37,2013-06-19 06:20:00,
2013-06-19 02:21:00,57.6,48.6,29.93,ESE,112,0.0,0.0,72,0.00,CLR,,0.00,WeatherDisplay:10.37,2013-06-19 06:21:00,
2013-06-19 02:22:00,57.7,48.4,29.93,ESE,112,0.0,0.0,71,0.00,CLR,,0.00,WeatherDisplay:10.37,2013-06-19 06:22:00,
2013-06-19 02:25:00,57.7,48.4,29.93,ESE,112,0.0,0.0,71,0.00,CLR,,0.00,WeatherDisplay:10.37,2013-06-19 06:25:00,
2013-06-19 02:26:00,57.7,48.4,29.93,ESE,112,0.0,0.0,71,0.00,CLR,,0.00,WeatherDisplay:10.37,2013-06-19 06:26:00,
2013-06-19 02:27:00,57.7,48.0,29.93,ESE,112,0.0,0.0,70,0.00,CLR,,0.00,WeatherDisplay:10.37,2013-06-19 06:27:00,
2013-06-19 02:31:00,57.7,48.0,29.93,East,90,0.0,0.0,70,0.00,CLR,,0.00,WeatherDisplay:10.37,2013-06-19 06:31:00,
2013-06-19 02:32:00,57.7,48.0,29.93,East,90,0.0,0.0,70,0.00,CLR,,0.00,WeatherDisplay:10.37,2013-06-19 06:32:00,
2013-06-19 02:36:00,57.7,47.6,29.93,East,90,0.0,0.0,69,0.00,CLR,,0.00,WeatherDisplay:10.37,2013-06-19 06:36:00,
2013-06-19 02:37:00,57.7,47.2,29.93,ENE,68,0.0,0.0,68,0.00,CLR,,0.00,WeatherDisplay:10.37,2013-06-19 06:37:00,
2013-06-19 02:41:00,57.7,46.0,29.93,ESE,112,3.5,3.5,65,0.00,CLR,,0.00,WeatherDisplay:10.37,2013-06-19 06:41:00,
2013-06-19 02:42:00,57.7,45.6,29.93,ESE,112,2.3,2.3,64,0.00,CLR,,0.00,WeatherDisplay:10.37,2013-06-19 06:42:00,
2013-06-19 02:43:00,57.7,45.2,29.95,ESE,112,1.2,1.2,63,0.00,CLR,,0.00,WeatherDisplay:10.37,2013-06-19 06:43:00,
2013-06-19 02:46:00,57.6,45.1,29.95,ESE,112,0.0,0.0,63,0.00,CLR,,0.00,WeatherDisplay:10.37,2013-06-19 06:46:00,
2013-06-19 02:47:00,57.6,45.1,29.95,ESE,112,0.0,0.0,63,0.00,CLR,,0.00,WeatherDisplay:10.37,2013-06-19 06:47:00,
2013-06-19 02:48:00,57.6,44.2,29.95,ESE,112,0.0,0.0,61,0.00,CLR,,0.00,WeatherDisplay:10.37,2013-06-19 06:48:00,
2013-06-19 02:51:00,57.4,44.0,29.95,ESE,112,0.0,0.0,61,0.00,CLR,,0.00,WeatherDisplay:10.37,2013-06-19 06:51:00,
2013-06-19 02:52:00,57.4,43.2,29.95,ESE,112,0.0,0.0,59,0.00,CLR,,0.00,WeatherDisplay:10.37,2013-06-19 06:52:00,
2013-06-19 02:53:00,57.6,43.3,29.95,NE,45,0.0,0.0,59,0.00,CLR,,0.00,WeatherDisplay:10.37,2013-06-19 06:53:00,
2013-06-19 02:57:00,57.4,43.2,29.95,ESE,112,0.0,0.0,59,0.00,CLR,,0.00,WeatherDisplay:10.37,2013-06-19 06:57:00,
2013-06-19 02:58:00,57.4,42.7,29.90,ESE,112,1.2,0.0,58,0.00,CLR,,0.00,WeatherDisplay:10.37,2013-06-19 06:58:00,
2013-06-19 02:59:00,57.4,43.2,29.90,ESE,112,2.3,2.3,59,0.00,CLR,,0.00,WeatherDisplay:10.37,2013-06-19 06:59:00,
2013-06-19 03:02:00,57.2,43.0,29.90,ESE,112,2.3,0.0,59,0.00,CLR,,0.00,WeatherDisplay:10.37,2013-06-19 07:02:00,
2013-06-19 03:03:00,57.2,43.0,29.90,ESE,112,0.0,0.0,59,0.00,CLR,,0.00,WeatherDisplay:10.37,2013-06-19 07:03:00,
2013-06-19 03:04:00,57.2,43.0,29.90,ESE,112,0.0,0.0,59,0.00,CLR,,0.00,WeatherDisplay:10.37,2013-06-19 07:04:00,
2013-06-19 03:07:00,57.2,43.0,29.90,ESE,112,2.3,2.3,59,0.00,CLR,,0.00,WeatherDisplay:10.37,2013-06-19 07:07:00,
2013-06-19 03:08:00,57.2,43.0,29.90,ESE,112,1.2,0.0,59,0.00,CLR,,0.00,WeatherDisplay:10.37,2013-06-19 07:08:00,
2013-06-19 03:09:00,57.2,43.4,29.90,ESE,112,0.0,0.0,60,0.00,CLR,,0.00,WeatherDisplay:10.37,2013-06-19 07:09:00,
2013-06-19 03:12:00,57.0,43.7,29.90,East,90,0.0,0.0,61,0.00,CLR,,0.00,WeatherDisplay:10.37,2013-06-19 07:12:00,
2013-06-19 03:13:00,56.8,43.5,29.93,East,90,0.0,0.0,61,0.00,CLR,,0.00,WeatherDisplay:10.37,2013-06-19 07:13:00,
2013-06-19 03:14:00,56.8,43.5,29.93,East,90,0.0,0.0,61,0.00,CLR,,0.00,WeatherDisplay:10.37,2013-06-19 07:14:00,
2013-06-19 03:18:00,56.8,44.0,29.93,ESE,112,0.0,0.0,62,0.00,CLR,,0.00,WeatherDisplay:10.37,2013-06-19 07:18:00,
2013-06-19 03:19:00,56.8,44.4,29.93,ESE,112,0.0,0.0,63,0.00,CLR,,0.00,WeatherDisplay:10.37,2013-06-19 07:19:00,
2013-06-19 03:23:00,56.8,44.4,29.93,ESE,112,3.5,3.5,63,0.00,CLR,,0.00,WeatherDisplay:10.37,2013-06-19 07:23:00,
2013-06-19 03:24:00,56.8,44.4,29.93,ESE,112,3.5,3.5,63,0.00,CLR,,0.00,WeatherDisplay:10.37,2013-06-19 07:24:00,
2013-06-19 03:28:00,56.7,44.2,29.93,ESE,112,2.3,2.3,63,0.00,CLR,,0.00,WeatherDisplay:10.37,2013-06-19 07:28:00,
2013-06-19 03:29:00,56.7,44.2,29.93,ESE,112,1.2,0.0,63,0.00,CLR,,0.00,WeatherDisplay:10.37,2013-06-19 07:29:00,
2013-06-19 03:33:00,56.5,44.4,29.93,ESE,112,0.0,0.0,64,0.00,CLR,,0.00,WeatherDisplay:10.37,2013-06-19 07:33:00,
2013-06-19 03:34:00,56.5,44.4,29.93,ESE,112,0.0,0.0,64,0.00,CLR,,0.00,WeatherDisplay:10.37,2013-06-19 07:34:00,
2013-06-19 03:35:00,56.5,44.4,29.93,East,90,0.0,0.0,64,0.00,CLR,,0.00,WeatherDisplay:10.37,2013-06-19 07:35:00,
2013-06-19 03:38:00,56.5,44.4,29.93,ESE,112,0.0,0.0,64,0.00,CLR,,0.00,WeatherDisplay:10.37,2013-06-19 07:38:00,
2013-06-19 03:39:00,56.5,44.4,29.93,ESE,112,0.0,0.0,64,0.00,CLR,,0.00,WeatherDisplay:10.37,2013-06-19 07:39:00,
2013-06-19 03:40:00,56.5,44.4,29.93,ESE,112,0.0,0.0,64,0.00,CLR,,0.00,WeatherDisplay:10.37,2013-06-19 07:40:00,
2013-06-19 03:44:00,56.3,44.7,29.93,ESE,112,0.0,0.0,65,0.00,CLR,,0.00,WeatherDisplay:10.37,2013-06-19 07:44:00,
2013-06-19 03:45:00,56.3,44.7,29.93,ESE,112,0.0,0.0,65,0.00,CLR,,0.00,WeatherDisplay:10.37,2013-06-19 07:45:00,
2013-06-19 03:49:00,56.1,44.5,29.93,SSW,202,0.0,0.0,65,0.00,CLR,,0.00,WeatherDisplay:10.37,2013-06-19 07:49:00,
2013-06-19 03:50:00,56.1,44.5,29.93,ESE,112,0.0,0.0,65,0.00,CLR,,0.00,WeatherDisplay:10.37,2013-06-19 07:50:00,
2013-06-19 03:51:00,56.1,44.5,29.93,ESE,112,0.0,0.0,65,0.00,CLR,,0.00,WeatherDisplay:10.37,2013-06-19 07:51:00,
2013-06-19 03:54:00,56.1,44.9,29.93,ESE,112,2.3,0.0,66,0.00,CLR,,0.00,WeatherDisplay:10.37,2013-06-19 07:54:00,
2013-06-19 03:55:00,56.1,44.9,29.93,ESE,112,3.5,3.5,66,0.00,CLR,,0.00,WeatherDisplay:10.37,2013-06-19 07:55:00,
2013-06-19 03:56:00,56.1,44.9,29.93,ESE,112,1.2,0.0,66,0.00,CLR,,0.00,WeatherDisplay:10.37,2013-06-19 07:56:00,
2013-06-19 03:59:00,55.9,44.7,29.93,ESE,112,2.3,0.0,66,0.00,CLR,,0.00,WeatherDisplay:10.37,2013-06-19 07:59:00,
2013-06-19 04:00:00,55.9,44.7,29.93,ESE,112,1.2,0.0,66,0.00,CLR,,0.00,WeatherDisplay:10.37,2013-06-19 08:00:00,
2013-06-19 04:01:00,55.9,45.1,29.93,ESE,112,1.2,0.0,67,0.00,CLR,,0.00,WeatherDisplay:10.37,2013-06-19 08:01:00,
2013-06-19 04:04:00,55.9,45.1,29.93,SE,135,2.6,0.0,67,0.00,CLR,,0.00,WeatherDisplay:10.37,2013-06-19 08:04:00,
2013-06-19 04:05:00,55.9,45.1,29.93,ESE,112,2.3,2.3,67,0.00,CLR,,0.00,WeatherDisplay:10.37,2013-06-19 08:05:00,
2013-06-19 04:06:00,55.9,45.1,29.93,ESE,112,2.3,0.0,67,0.00,CLR,,0.00,WeatherDisplay:10.37,2013-06-19 08:06:00,
2013-06-19 04:10:00,55.8,45.4,29.93,SSE,158,3.5,3.5,68,0.00,CLR,,0.00,WeatherDisplay:10.37,2013-06-19 08:10:00,
2013-06-19 04:11:00,55.8,45.4,29.93,SE,135,1.2,2.0,68,0.00,CLR,,0.00,WeatherDisplay:10.37,2013-06-19 08:11:00,
2013-06-19 04:15:00,55.6,45.2,29.93,ESE,112,1.2,0.0,68,0.00,CLR,,0.00,WeatherDisplay:10.37,2013-06-19 08:15:00,
2013-06-19 04:16:00,55.6,45.2,29.93,ESE,112,1.2,0.0,68,0.00,CLR,,0.00,WeatherDisplay:10.37,2013-06-19 08:16:00,
2013-06-19 04:17:00,55.6,45.6,29.93,SE,135,2.3,2.3,69,0.00,CLR,,0.00,WeatherDisplay:10.37,2013-06-19 08:17:00,
2013-06-19 04:20:00,55.4,45.4,29.93,ESE,112,3.5,3.5,69,0.00,CLR,,0.00,WeatherDisplay:10.37,2013-06-19 08:20:00,
2013-06-19 04:21:00,55.6,45.9,29.93,ESE,112,5.8,5.8,70,0.00,CLR,,0.00,WeatherDisplay:10.37,2013-06-19 08:21:00,
2013-06-19 04:22:00,55.6,45.9,29.93,ESE,112,1.2,0.0,70,0.00,CLR,,0.00,WeatherDisplay:10.37,2013-06-19 08:22:00,
2013-06-19 04:26:00,55.4,45.8,29.93,ESE,112,3.5,3.5,70,0.00,CLR,,0.00,WeatherDisplay:10.37,2013-06-19 08:26:00,
2013-06-19 04:27:00,55.4,45.8,29.93,ESE,112,2.3,0.0,70,0.00,CLR,,0.00,WeatherDisplay:10.37,2013-06-19 08:27:00,
2013-06-19 04:28:00,55.4,45.8,29.95,ESE,112,4.0,4.0,70,0.00,CLR,,0.00,WeatherDisplay:10.37,2013-06-19 08:28:00,
2013-06-19 04:31:00,55.4,45.8,29.95,ESE,112,2.2,0.0,70,0.00,CLR,,0.00,WeatherDisplay:10.37,2013-06-19 08:31:00,
2013-06-19 04:32:00,55.4,45.8,29.95,ESE,112,2.4,0.0,70,0.00,CLR,,0.00,WeatherDisplay:10.37,2013-06-19 08:32:00,
2013-06-19 04:34:00,55.4,45.8,29.95,East,90,5.6,5.6,70,0.00,CLR,,0.00,WeatherDisplay:10.37,2013-06-19 08:34:00,
2013-06-19 04:36:00,55.2,45.6,29.95,ESE,112,3.5,0.0,70,0.00,CLR,,0.00,WeatherDisplay:10.37,2013-06-19 08:36:00,
2013-06-19 04:37:00,55.2,45.6,29.95,ESE,112,1.2,0.0,70,0.00,CLR,,0.00,WeatherDisplay:10.37,2013-06-19 08:37:00,
2013-06-19 04:38:00,55.2,46.0,29.95,ESE,112,3.8,3.8,71,0.00,CLR,,0.00,WeatherDisplay:10.37,2013-06-19 08:38:00,
2013-06-19 04:39:00,55.2,46.0,29.95,ESE,112,3.5,3.5,71,0.00,CLR,,0.00,WeatherDisplay:10.37,2013-06-19 08:39:00,
2013-06-19 04:42:00,55.2,45.6,29.95,ESE,112,0.0,0.0,70,0.00,CLR,,0.00,WeatherDisplay:10.37,2013-06-19 08:42:00,
2013-06-19 04:43:00,55.0,45.4,29.95,ESE,112,0.0,0.0,70,0.00,CLR,,0.00,WeatherDisplay:10.37,2013-06-19 08:43:00,
2013-06-19 04:44:00,55.0,45.4,29.95,ESE,112,2.4,2.4,70,0.00,CLR,,0.00,WeatherDisplay:10.37,2013-06-19 08:44:00,
2013-06-19 04:47:00,55.0,45.4,29.95,ESE,112,1.2,0.0,70,0.00,CLR,,0.00,WeatherDisplay:10.37,2013-06-19 08:47:00,
2013-06-19 04:48:00,55.0,45.4,29.95,ESE,112,0.0,0.0,70,0.00,CLR,,0.00,WeatherDisplay:10.37,2013-06-19 08:48:00,
2013-06-19 04:49:00,55.0,45.4,29.95,ESE,112,0.0,0.0,70,0.00,CLR,,0.00,WeatherDisplay:10.37,2013-06-19 08:49:00,
2013-06-19 04:52:00,55.0,45.8,29.95,ESE,112,2.3,2.3,71,0.00,CLR,,0.00,WeatherDisplay:10.37,2013-06-19 08:52:00,
2013-06-19 04:53:00,55.0,45.8,29.95,ESE,112,2.3,2.3,71,0.00,CLR,,0.00,WeatherDisplay:10.37,2013-06-19 08:53:00,
2013-06-19 04:55:00,54.9,45.6,29.95,ESE,112,0.0,0.0,71,0.00,CLR,,0.00,WeatherDisplay:10.37,2013-06-19 08:55:00,
2013-06-19 04:57:00,54.7,45.5,29.95,ESE,112,0.0,0.0,71,0.00,CLR,,0.00,WeatherDisplay:10.37,2013-06-19 08:57:00,
2013-06-19 04:59:00,54.7,45.5,29.99,ESE,112,0.0,0.0,71,0.00,CLR,,0.00,WeatherDisplay:10.37,2013-06-19 08:59:00,
2013-06-19 05:00:00,54.7,45.5,29.99,SE,135,5.8,5.8,71,0.00,CLR,,0.00,WeatherDisplay:10.37,2013-06-19 09:00:00,
2013-06-19 05:02:00,54.9,45.6,29.99,ESE,112,0.0,0.0,71,0.00,CLR,,0.00,WeatherDisplay:10.37,2013-06-19 09:02:00,
2013-06-19 05:04:00,54.7,45.5,29.99,ESE,112,0.0,0.0,71,0.00,CLR,,0.00,WeatherDisplay:10.37,2013-06-19 09:04:00,
2013-06-19 05:06:00,54.7,45.5,29.99,SE,135,0.0,0.0,71,0.00,CLR,,0.00,WeatherDisplay:10.37,2013-06-19 09:06:00,
2013-06-19 05:08:00,54.7,45.5,29.99,ESE,112,0.0,0.0,71,0.00,CLR,,0.00,WeatherDisplay:10.37,2013-06-19 09:08:00,
2013-06-19 05:09:00,54.5,45.3,29.99,ESE,112,0.0,0.0,71,0.00,CLR,,0.00,WeatherDisplay:10.37,2013-06-19 09:09:00,
2013-06-19 05:11:00,54.5,44.9,29.99,ESE,112,0.0,0.0,70,0.00,CLR,,0.00,WeatherDisplay:10.37,2013-06-19 09:11:00,
2013-06-19 05:13:00,54.5,45.3,29.95,ESE,112,0.0,0.0,71,0.00,CLR,,0.00,WeatherDisplay:10.37,2013-06-19 09:13:00,
2013-06-19 05:14:00,54.5,44.9,29.95,NW,315,0.0,0.0,70,0.00,CLR,,0.00,WeatherDisplay:10.37,2013-06-19 09:14:00,
2013-06-19 05:15:00,54.5,44.9,29.95,ESE,112,0.0,0.0,70,0.00,CLR,,0.00,WeatherDisplay:10.37,2013-06-19 09:15:00,
2013-06-19 05:16:00,54.5,44.9,29.95,ESE,112,0.0,0.0,70,0.00,CLR,,0.00,WeatherDisplay:10.37,2013-06-19 09:16:00,
2013-06-19 05:18:00,54.5,44.9,29.95,SE,135,0.0,0.0,70,0.00,CLR,,0.00,WeatherDisplay:10.37,2013-06-19 09:18:00,
2013-06-19 05:20:00,54.5,44.9,29.95,ESE,112,0.0,0.0,70,0.00,CLR,,0.00,WeatherDisplay:10.37,2013-06-19 09:20:00,
2013-06-19 05:21:00,54.5,44.5,29.95,ESE,112,0.0,0.0,69,0.00,CLR,,0.00,WeatherDisplay:10.37,2013-06-19 09:21:00,
2013-06-19 05:23:00,54.5,44.5,29.95,ESE,112,0.0,0.0,69,0.00,CLR,,0.00,WeatherDisplay:10.37,2013-06-19 09:23:00,
2013-06-19 05:24:00,54.5,44.5,29.95,ESE,112,0.0,0.0,69,0.00,CLR,,0.00,WeatherDisplay:10.37,2013-06-19 09:24:00,
2013-06-19 05:25:00,54.3,44.4,29.95,SSE,158,4.0,0.0,69,0.00,CLR,,0.00,WeatherDisplay:10.37,2013-06-19 09:25:00,
2013-06-19 05:27:00,54.3,44.4,29.95,SSE,158,0.0,0.0,69,0.00,CLR,,0.00,WeatherDisplay:10.37,2013-06-19 09:27:00,
2013-06-19 05:28:00,54.3,44.4,29.95,ESE,112,0.0,0.0,69,0.00,CLR,,0.00,WeatherDisplay:10.37,2013-06-19 09:28:00,
2013-06-19 05:29:00,54.3,44.4,29.95,ESE,112,0.0,0.0,69,0.00,CLR,,0.00,WeatherDisplay:10.37,2013-06-19 09:29:00,
2013-06-19 05:30:00,54.1,44.2,29.95,ESE,112,0.0,0.0,69,0.00,CLR,,0.00,WeatherDisplay:10.37,2013-06-19 09:30:00,
2013-06-19 05:32:00,54.1,44.2,29.95,SSE,158,0.0,0.0,69,0.00,CLR,,0.00,WeatherDisplay:10.37,2013-06-19 09:32:00,
2013-06-19 05:33:00,54.1,44.2,29.95,SE,135,1.2,0.0,69,0.00,CLR,,0.00,WeatherDisplay:10.37,2013-06-19 09:33:00,
2013-06-19 05:34:00,54.1,44.2,29.95,SE,135,1.2,0.0,69,0.00,CLR,,0.00,WeatherDisplay:10.37,2013-06-19 09:34:00,
2013-06-19 05:35:00,54.1,43.8,29.95,East,90,0.0,0.0,68,0.00,CLR,,0.00,WeatherDisplay:10.37,2013-06-19 09:35:00,
2013-06-19 05:37:00,54.0,43.6,29.95,East,90,0.0,0.0,68,0.00,CLR,,0.00,WeatherDisplay:10.37,2013-06-19 09:37:00,
2013-06-19 05:39:00,54.0,44.0,29.95,ESE,112,0.0,0.0,69,0.00,CLR,,0.00,WeatherDisplay:10.37,2013-06-19 09:39:00,
2013-06-19 05:40:00,54.1,43.8,29.95,ENE,68,1.2,2.6,68,0.00,CLR,,0.00,WeatherDisplay:10.37,2013-06-19 09:40:00,
2013-06-19 05:42:00,54.1,43.8,29.95,ESE,112,0.0,0.0,68,0.00,CLR,,0.00,WeatherDisplay:10.37,2013-06-19 09:42:00,
2013-06-19 05:44:00,54.0,43.6,29.99,ESE,112,0.0,0.0,68,0.00,CLR,,0.00,WeatherDisplay:10.37,2013-06-19 09:44:00,
2013-06-19 05:45:00,54.0,43.6,29.99,ESE,112,0.0,0.0,68,0.00,CLR,,0.00,WeatherDisplay:10.37,2013-06-19 09:45:00,
2013-06-19 05:48:00,54.0,43.6,29.99,ESE,112,0.0,0.0,68,0.00,CLR,,0.00,WeatherDisplay:10.37,2013-06-19 09:48:00,
2013-06-19 05:49:00,53.8,43.5,29.99,ESE,112,0.0,0.0,68,0.00,CLR,,0.00,WeatherDisplay:10.37,2013-06-19 09:49:00,
2013-06-19 05:50:00,53.8,43.5,29.99,ESE,112,0.0,0.0,68,0.00,CLR,,0.00,WeatherDisplay:10.37,2013-06-19 09:50:00,
2013-06-19 05:53:00,53.6,43.3,29.99,ESE,112,0.0,0.0,68,0.00,CLR,,0.00,WeatherDisplay:10.37,2013-06-19 09:53:00,
2013-06-19 05:54:00,53.6,43.3,29.99,ESE,112,0.0,0.0,68,0.00,CLR,,0.00,WeatherDisplay:10.37,2013-06-19 09:54:00,
2013-06-19 05:55:00,53.6,43.7,29.99,ESE,112,0.0,0.0,69,0.00,CLR,,0.00,WeatherDisplay:10.37,2013-06-19 09:55:00,
2013-06-19 05:56:00,53.6,43.7,29.99,ESE,112,0.0,0.0,69,0.00,CLR,,0.00,WeatherDisplay:10.37,2013-06-19 09:56:00,
2013-06-19 05:59:00,53.4,43.5,29.99,ESE,112,0.0,0.0,69,0.00,CLR,,0.00,WeatherDisplay:10.37,2013-06-19 09:59:00,
2013-06-19 06:00:00,53.4,43.5,29.99,ESE,112,0.0,0.0,69,0.00,CLR,,0.00,WeatherDisplay:10.37,2013-06-19 10:00:00,
2013-06-19 06:01:00,53.4,43.5,29.99,ESE,112,0.0,0.0,69,0.00,CLR,,0.00,WeatherDisplay:10.37,2013-06-19 10:01:00,
2013-06-19 06:04:00,53.4,43.9,29.99,ESE,112,2.3,0.0,70,0.00,CLR,,0.00,WeatherDisplay:10.37,2013-06-19 10:04:00,
2013-06-19 06:05:00,53.4,43.9,29.99,ESE,112,1.2,0.0,70,0.00,CLR,,0.00,WeatherDisplay:10.37,2013-06-19 10:05:00,
2013-06-19 06:06:00,53.4,43.9,29.99,ESE,112,0.0,0.0,70,0.00,CLR,,0.00,WeatherDisplay:10.37,2013-06-19 10:06:00,
2013-06-19 06:10:00,53.6,43.7,29.99,East,90,0.0,0.0,69,0.00,CLR,,0.00,WeatherDisplay:10.37,2013-06-19 10:10:00,
2013-06-19 06:11:00,53.6,43.7,29.99,East,90,0.0,0.0,69,0.00,CLR,,0.00,WeatherDisplay:10.37,2013-06-19 10:11:00,
2013-06-19 06:15:00,53.6,43.7,30.01,East,90,0.0,0.0,69,0.00,CLR,,0.00,WeatherDisplay:10.37,2013-06-19 10:15:00,
2013-06-19 06:16:00,53.6,44.0,30.01,East,90,0.0,0.0,70,0.00,CLR,,0.00,WeatherDisplay:10.37,2013-06-19 10:16:00,
2013-06-19 06:17:00,53.4,43.9,30.01,East,90,0.0,0.0,70,0.00,CLR,,0.00,WeatherDisplay:10.37,2013-06-19 10:17:00,
2013-06-19 06:20:00,53.4,44.2,30.01,East,90,0.0,0.0,71,0.00,CLR,,0.00,WeatherDisplay:10.37,2013-06-19 10:20:00,
2013-06-19 06:21:00,53.4,44.2,30.01,East,90,0.0,0.0,71,0.00,CLR,,0.00,WeatherDisplay:10.37,2013-06-19 10:21:00,
2013-06-19 06:22:00,53.4,43.9,30.01,ESE,112,0.0,0.0,70,0.00,CLR,,0.00,WeatherDisplay:10.37,2013-06-19 10:22:00,
2013-06-19 06:25:00,53.4,44.2,30.01,ESE,112,0.0,0.0,71,0.00,CLR,,0.00,WeatherDisplay:10.37,2013-06-19 10:25:00,
2013-06-19 06:26:00,53.4,44.2,30.01,ESE,112,0.0,0.0,71,0.00,CLR,,0.00,WeatherDisplay:10.37,2013-06-19 10:26:00,
2013-06-19 06:27:00,53.4,44.2,30.01,ESE,112,0.0,0.0,71,0.00,CLR,,0.00,WeatherDisplay:10.37,2013-06-19 10:27:00,
2013-06-19 06:31:00,53.4,44.2,29.99,ESE,112,0.0,0.0,71,0.00,CLR,,0.00,WeatherDisplay:10.37,2013-06-19 10:31:00,
2013-06-19 06:32:00,53.4,44.2,29.99,ESE,112,0.0,0.0,71,0.00,CLR,,0.00,WeatherDisplay:10.37,2013-06-19 10:32:00,
2013-06-19 06:36:00,53.4,44.2,29.99,ESE,112,0.0,0.0,71,0.00,CLR,,0.00,WeatherDisplay:10.37,2013-06-19 10:36:00,
2013-06-19 06:37:00,53.4,44.6,29.99,ESE,112,0.0,0.0,72,0.00,CLR,,0.00,WeatherDisplay:10.37,2013-06-19 10:37:00,
2013-06-19 06:41:00,53.2,44.4,29.99,ESE,112,0.0,0.0,72,0.00,CLR,,0.00,WeatherDisplay:10.37,2013-06-19 10:41:00,
2013-06-19 06:43:00,53.2,44.4,29.99,ESE,112,0.0,0.0,72,0.00,CLR,,0.00,WeatherDisplay:10.37,2013-06-19 10:43:00,
2013-06-19 06:46:00,53.2,44.4,29.99,ESE,112,0.0,0.0,72,0.00,CLR,,0.00,WeatherDisplay:10.37,2013-06-19 10:46:00,
2013-06-19 06:47:00,53.2,44.4,29.99,ESE,112,0.0,0.0,72,0.00,CLR,,0.00,WeatherDisplay:10.37,2013-06-19 10:47:00,
2013-06-19 06:48:00,53.2,44.4,29.99,ESE,112,0.0,0.0,72,0.00,CLR,,0.00,WeatherDisplay:10.37,2013-06-19 10:48:00,
2013-06-19 06:51:00,53.2,44.8,29.99,ESE,112,0.0,0.0,73,0.00,CLR,,0.00,WeatherDisplay:10.37,2013-06-19 10:51:00,
2013-06-19 06:52:00,53.2,44.8,29.99,ESE,112,0.0,0.0,73,0.00,CLR,,0.00,WeatherDisplay:10.37,2013-06-19 10:52:00,
2013-06-19 06:54:00,53.2,44.8,29.99,ESE,112,0.0,0.0,73,0.00,CLR,,0.00,WeatherDisplay:10.37,2013-06-19 10:54:00,
2013-06-19 06:56:00,53.2,44.8,29.99,ESE,112,0.0,0.0,73,0.00,CLR,,0.00,WeatherDisplay:10.37,2013-06-19 10:56:00,
2013-06-19 06:57:00,53.2,44.8,29.99,ESE,112,0.0,0.0,73,0.00,CLR,,0.00,WeatherDisplay:10.37,2013-06-19 10:57:00,
2013-06-19 06:59:00,53.2,44.8,29.99,ESE,112,0.0,0.0,73,0.00,CLR,,0.00,WeatherDisplay:10.37,2013-06-19 10:59:00,
2013-06-19 07:01:00,53.6,45.5,29.99,ESE,112,0.0,0.0,74,0.00,CLR,,0.00,WeatherDisplay:10.37,2013-06-19 11:01:00,
2013-06-19 07:02:00,53.8,45.7,29.99,ESE,112,0.0,0.0,74,0.00,CLR,,0.00,WeatherDisplay:10.37,2013-06-19 11:02:00,
2013-06-19 07:04:00,54.1,46.0,29.99,SE,135,1.2,0.0,74,0.00,CLR,,0.00,WeatherDisplay:10.37,2013-06-19 11:04:00,
2013-06-19 07:07:00,54.3,46.2,29.99,NNE,22,1.2,0.0,74,0.00,CLR,,0.00,WeatherDisplay:10.37,2013-06-19 11:07:00,
2013-06-19 07:09:00,54.5,46.4,29.99,NNE,22,0.0,0.0,74,0.00,CLR,,0.00,WeatherDisplay:10.37,2013-06-19 11:09:00,
2013-06-19 07:12:00,54.5,46.4,29.99,NE,45,0.0,0.0,74,0.00,CLR,,0.00,WeatherDisplay:10.37,2013-06-19 11:12:00,
2013-06-19 07:13:00,54.7,46.6,30.01,East,90,1.2,0.0,74,0.00,CLR,,0.00,WeatherDisplay:10.37,2013-06-19 11:13:00,
2013-06-19 07:14:00,54.9,46.7,30.01,East,90,1.2,0.0,74,0.00,CLR,,0.00,WeatherDisplay:10.37,2013-06-19 11:14:00,
2013-06-19 07:17:00,55.0,46.9,30.01,NE,45,1.2,0.0,74,0.00,CLR,,0.00,WeatherDisplay:10.37,2013-06-19 11:17:00,
2013-06-19 07:18:00,55.2,47.1,30.01,ENE,68,0.0,0.0,74,0.00,CLR,,0.00,WeatherDisplay:10.37,2013-06-19 11:18:00,
2013-06-19 07:19:00,55.2,46.7,30.01,SSE,158,0.0,0.0,73,0.00,CLR,,0.00,WeatherDisplay:10.37,2013-06-19 11:19:00,
2013-06-19 07:22:00,55.4,46.5,30.01,ESE,112,0.0,0.0,72,0.00,CLR,,0.00,WeatherDisplay:10.37,2013-06-19 11:22:00,
2013-06-19 07:23:00,55.6,46.7,30.01,ENE,68,0.0,0.0,72,0.00,CLR,,0.00,WeatherDisplay:10.37,2013-06-19 11:23:00,
2013-06-19 07:24:00,55.6,46.7,30.01,ENE,68,0.0,0.0,72,0.00,CLR,,0.00,WeatherDisplay:10.37,2013-06-19 11:24:00,
2013-06-19 07:27:00,55.9,46.7,30.01,ESE,112,3.5,0.0,71,0.00,CLR,,0.00,WeatherDisplay:10.37,2013-06-19 11:27:00,
2013-06-19 07:28:00,55.9,46.7,30.01,ESE,112,3.5,0.0,71,0.00,CLR,,0.00,WeatherDisplay:10.37,2013-06-19 11:28:00,
2013-06-19 07:29:00,55.9,46.7,30.01,ESE,112,3.5,0.0,71,0.00,CLR,,0.00,WeatherDisplay:10.37,2013-06-19 11:29:00,
2013-06-19 07:33:00,56.3,46.3,30.01,East,90,0.0,0.0,69,0.00,CLR,,0.00,WeatherDisplay:10.37,2013-06-19 11:33:00,
2013-06-19 07:34:00,56.5,46.0,30.01,ESE,112,0.0,0.0,68,0.00,CLR,,0.00,WeatherDisplay:10.37,2013-06-19 11:34:00,
2013-06-19 07:38:00,56.7,45.8,30.01,SSE,158,0.0,0.0,67,0.00,CLR,,0.00,WeatherDisplay:10.37,2013-06-19 11:38:00,
2013-06-19 07:39:00,56.7,45.4,30.01,East,90,3.6,3.6,66,0.00,CLR,,0.00,WeatherDisplay:10.37,2013-06-19 11:39:00,
2013-06-19 07:43:00,56.8,45.2,30.01,ESE,112,2.3,2.3,65,0.00,CLR,,0.00,WeatherDisplay:10.37,2013-06-19 11:43:00,
2013-06-19 07:44:00,56.8,45.2,30.01,ESE,112,2.3,0.0,65,0.00,CLR,,0.00,WeatherDisplay:10.37,2013-06-19 11:44:00,
2013-06-19 07:45:00,56.8,44.8,30.01,ESE,112,3.1,3.1,64,0.00,CLR,,0.00,WeatherDisplay:10.37,2013-06-19 11:45:00,
2013-06-19 07:48:00,57.0,44.1,30.01,SSE,158,3.5,3.5,62,0.00,CLR,,0.00,WeatherDisplay:10.37,2013-06-19 11:48:00,
2013-06-19 07:49:00,57.0,44.1,30.01,SSE,158,1.2,0.0,62,0.00,CLR,,0.00,WeatherDisplay:10.37,2013-06-19 11:49:00,
2013-06-19 07:50:00,57.0,44.1,30.01,SE,135,1.2,1.2,62,0.00,CLR,,0.00,WeatherDisplay:10.37,2013-06-19 11:50:00,
2013-06-19 07:54:00,57.2,43.4,30.01,SE,135,1.2,0.0,60,0.00,CLR,,0.00,WeatherDisplay:10.37,2013-06-19 11:54:00,
2013-06-19 07:55:00,57.2,43.4,30.01,East,90,0.0,0.0,60,0.00,CLR,,0.00,WeatherDisplay:10.37,2013-06-19 11:55:00,
2013-06-19 07:56:00,57.2,42.1,30.01,ESE,112,1.4,1.4,57,0.00,CLR,,0.00,WeatherDisplay:10.37,2013-06-19 11:56:00,
2013-06-19 07:59:00,57.2,42.5,30.01,ESE,112,0.0,0.0,58,0.00,CLR,,0.00,WeatherDisplay:10.37,2013-06-19 11:59:00,
2013-06-19 08:01:00,57.4,42.7,30.01,ESE,112,4.0,4.0,58,0.00,CLR,,0.00,WeatherDisplay:10.37,2013-06-19 12:01:00,
2013-06-19 08:02:00,57.6,42.4,30.01,SE,135,4.7,4.7,57,0.00,CLR,,0.00,WeatherDisplay:10.37,2013-06-19 12:02:00,
2013-06-19 08:04:00,57.6,42.4,30.01,SE,135,0.0,2.0,57,0.00,CLR,,0.00,WeatherDisplay:10.37,2013-06-19 12:04:00,
2013-06-19 08:05:00,57.6,42.0,30.01,ESE,112,4.6,0.0,56,0.00,CLR,,0.00,WeatherDisplay:10.37,2013-06-19 12:05:00,
2013-06-19 08:06:00,57.6,42.9,30.01,ESE,112,1.2,0.0,58,0.00,CLR,,0.00,WeatherDisplay:10.37,2013-06-19 12:06:00,
2013-06-19 08:07:00,57.6,42.9,30.01,ENE,68,0.0,0.0,58,0.00,CLR,,0.00,WeatherDisplay:10.37,2013-06-19 12:07:00,
2013-06-19 08:09:00,57.9,43.2,30.01,SE,135,0.0,0.0,58,0.00,CLR,,0.00,WeatherDisplay:10.37,2013-06-19 12:09:00,
2013-06-19 08:10:00,57.9,43.2,30.01,SE,135,0.0,0.0,58,0.00,CLR,,0.00,WeatherDisplay:10.37,2013-06-19 12:10:00,
2013-06-19 08:11:00,57.9,43.2,30.01,ENE,68,0.0,0.0,58,0.00,CLR,,0.00,WeatherDisplay:10.37,2013-06-19 12:11:00,
2013-06-19 08:12:00,57.9,43.2,30.01,ESE,112,4.0,4.0,58,0.00,CLR,,0.00,WeatherDisplay:10.37,2013-06-19 12:12:00,
2013-06-19 08:15:00,58.3,43.1,30.01,East,90,2.3,0.0,57,0.00,CLR,,0.00,WeatherDisplay:10.37,2013-06-19 12:15:00,
2013-06-19 08:16:00,58.3,43.1,30.01,ESE,112,1.2,0.0,57,0.00,CLR,,0.00,WeatherDisplay:10.37,2013-06-19 12:16:00,
2013-06-19 08:17:00,58.5,43.3,30.01,ESE,112,2.6,0.0,57,0.00,CLR,,0.00,WeatherDisplay:10.37,2013-06-19 12:17:00,
2013-06-19 08:20:00,58.8,43.1,30.01,NE,45,0.0,0.0,56,0.00,CLR,,0.00,WeatherDisplay:10.37,2013-06-19 12:20:00,
2013-06-19 08:21:00,59.2,43.0,30.01,East,90,0.0,0.0,55,0.00,CLR,,0.00,WeatherDisplay:10.37,2013-06-19 12:21:00,
2013-06-19 08:22:00,59.2,43.0,30.01,ESE,112,0.0,0.0,55,0.00,CLR,,0.00,WeatherDisplay:10.37,2013-06-19 12:22:00,
2013-06-19 08:25:00,59.5,41.4,30.01,ESE,112,5.8,5.8,51,0.00,CLR,,0.00,WeatherDisplay:10.37,2013-06-19 12:25:00,
2013-06-19 08:26:00,59.7,42.1,30.01,SSE,158,4.6,0.0,52,0.00,CLR,,0.00,WeatherDisplay:10.37,2013-06-19 12:26:00,
2013-06-19 08:27:00,59.7,42.1,30.01,SSE,158,0.0,0.0,52,0.00,CLR,,0.00,WeatherDisplay:10.37,2013-06-19 12:27:00,
2013-06-19 08:28:00,59.9,42.7,30.01,SE,135,0.0,0.0,53,0.00,CLR,,0.00,WeatherDisplay:10.37,2013-06-19 12:28:00,
2013-06-19 08:30:00,60.3,42.6,30.01,North,0,1.6,1.6,52,0.00,CLR,,0.00,WeatherDisplay:10.37,2013-06-19 12:30:00,
2013-06-19 08:31:00,60.4,41.7,30.01,ESE,112,2.4,2.4,50,0.00,CLR,,0.00,WeatherDisplay:10.37,2013-06-19 12:31:00,
2013-06-19 08:32:00,60.4,41.7,30.01,ESE,112,2.3,2.3,50,0.00,CLR,,0.00,WeatherDisplay:10.37,2013-06-19 12:32:00,
2013-06-19 08:33:00,60.4,42.2,30.01,ESE,112,2.3,2.3,51,0.00,CLR,,0.00,WeatherDisplay:10.37,2013-06-19 12:33:00,
2013-06-19 08:35:00,60.3,40.5,30.01,ENE,68,2.4,2.4,48,0.00,CLR,,0.00,WeatherDisplay:10.37,2013-06-19 12:35:00,
2013-06-19 08:36:00,60.3,40.5,30.01,ENE,68,4.6,4.6,48,0.00,CLR,,0.00,WeatherDisplay:10.37,2013-06-19 12:36:00,
2013-06-19 08:37:00,60.1,39.8,30.01,NNE,22,2.6,2.6,47,0.00,CLR,,0.00,WeatherDisplay:10.37,2013-06-19 12:37:00,
2013-06-19 08:39:00,59.9,39.6,30.01,East,90,2.3,2.4,47,0.00,CLR,,0.00,WeatherDisplay:10.37,2013-06-19 12:39:00,
2013-06-19 08:40:00,59.7,40.5,30.01,SSE,158,0.0,0.0,49,0.00,CLR,,0.00,WeatherDisplay:10.37,2013-06-19 12:40:00,
2013-06-19 08:41:00,59.7,40.5,30.01,SSE,158,0.0,0.0,49,0.00,CLR,,0.00,WeatherDisplay:10.37,2013-06-19 12:41:00,
2013-06-19 08:43:00,59.7,41.0,30.01,ESE,112,2.9,2.9,50,0.00,CLR,,0.00,WeatherDisplay:10.37,2013-06-19 12:43:00,
2013-06-19 08:44:00,59.7,40.5,30.04,ESE,112,4.6,4.6,49,0.00,CLR,,0.00,WeatherDisplay:10.37,2013-06-19 12:44:00,
2013-06-19 08:46:00,59.9,41.2,30.04,East,90,3.5,3.5,50,0.00,CLR,,0.00,WeatherDisplay:10.37,2013-06-19 12:46:00,
2013-06-19 08:47:00,59.9,40.1,30.04,ENE,68,3.6,3.6,48,0.00,CLR,,0.00,WeatherDisplay:10.37,2013-06-19 12:47:00,
2013-06-19 08:48:00,59.9,40.1,30.04,ESE,112,3.5,3.5,48,0.00,CLR,,0.00,WeatherDisplay:10.37,2013-06-19 12:48:00,
2013-06-19 08:49:00,59.7,40.5,30.04,SSE,158,2.3,2.3,49,0.00,CLR,,0.00,WeatherDisplay:10.37,2013-06-19 12:49:00,
2013-06-19 08:51:00,59.9,41.2,30.04,SE,135,0.0,0.0,50,0.00,CLR,,0.00,WeatherDisplay:10.37,2013-06-19 12:51:00,
2013-06-19 08:52:00,59.9,41.2,30.04,SSE,158,1.2,0.0,50,0.00,CLR,,0.00,WeatherDisplay:10.37,2013-06-19 12:52:00,
2013-06-19 08:53:00,59.9,41.2,30.04,East,90,2.2,0.0,50,0.00,CLR,,0.00,WeatherDisplay:10.37,2013-06-19 12:53:00,
2013-06-19 08:54:00,59.9,41.2,30.04,ESE,112,2.3,0.0,50,0.00,CLR,,0.00,WeatherDisplay:10.37,2013-06-19 12:54:00,
2013-06-19 08:56:00,60.1,41.4,30.04,ESE,112,0.0,0.0,50,0.00,CLR,,0.00,WeatherDisplay:10.37,2013-06-19 12:56:00,
2013-06-19 08:57:00,60.1,41.4,30.04,ESE,112,0.0,0.0,50,0.00,CLR,,0.00,WeatherDisplay:10.37,2013-06-19 12:57:00,
2013-06-19 08:58:00,60.1,41.9,30.04,ENE,68,0.0,0.0,51,0.00,CLR,,0.00,WeatherDisplay:10.37,2013-06-19 12:58:00,
2013-06-19 08:59:00,60.1,41.9,30.04,East,90,0.0,0.0,51,0.00,CLR,,0.00,WeatherDisplay:10.37,2013-06-19 12:59:00,
2013-06-19 09:01:00,60.3,42.0,30.04,East,90,2.3,2.3,51,0.00,CLR,,0.00,WeatherDisplay:10.37,2013-06-19 13:01:00,
2013-06-19 09:02:00,60.4,42.2,30.04,ENE,68,3.3,3.3,51,0.00,CLR,,0.00,WeatherDisplay:10.37,2013-06-19 13:02:00,
2013-06-19 09:04:00,60.4,41.7,30.04,ESE,112,2.9,2.9,50,0.00,CLR,,0.00,WeatherDisplay:10.37,2013-06-19 13:04:00,
2013-06-19 09:06:00,60.8,41.5,30.04,ESE,112,3.6,3.6,49,0.00,CLR,,0.00,WeatherDisplay:10.37,2013-06-19 13:06:00,
2013-06-19 09:07:00,60.6,40.8,30.04,ESE,112,3.5,3.5,48,0.00,CLR,,0.00,WeatherDisplay:10.37,2013-06-19 13:07:00,
2013-06-19 09:09:00,60.6,41.3,30.04,NNW,338,4.6,4.6,49,0.00,CLR,,0.00,WeatherDisplay:10.37,2013-06-19 13:09:00,
2013-06-19 09:11:00,61.0,42.2,30.04,East,90,0.0,0.0,50,0.00,CLR,,0.00,WeatherDisplay:10.37,2013-06-19 13:11:00,
2013-06-19 09:12:00,61.0,42.2,30.04,ENE,68,0.0,0.0,50,0.00,CLR,,0.00,WeatherDisplay:10.37,2013-06-19 13:12:00,
2013-06-19 09:14:00,61.5,43.2,30.01,ESE,112,0.0,0.0,51,0.00,CLR,,0.00,WeatherDisplay:10.37,2013-06-19 13:14:00,
2013-06-19 09:15:00,61.5,43.2,30.01,NE,45,0.0,0.0,51,0.00,CLR,,0.00,WeatherDisplay:10.37,2013-06-19 13:15:00,
2013-06-19 09:17:00,61.9,43.5,30.01,NE,45,3.8,0.0,51,0.00,CLR,,0.00,WeatherDisplay:10.37,2013-06-19 13:17:00,
2013-06-19 09:19:00,62.2,42.8,30.01,NNE,22,3.5,3.5,49,0.00,CLR,,0.00,WeatherDisplay:10.37,2013-06-19 13:19:00,
2013-06-19 09:20:00,62.2,42.8,30.01,NE,45,2.3,2.3,49,0.00,CLR,,0.00,WeatherDisplay:10.37,2013-06-19 13:20:00,
2013-06-19 09:22:00,62.2,42.8,30.01,ESE,112,1.2,2.0,49,0.00,CLR,,0.00,WeatherDisplay:10.37,2013-06-19 13:22:00,
2013-06-19 09:23:00,62.2,42.8,30.01,ENE,68,2.3,2.3,49,0.00,CLR,,0.00,WeatherDisplay:10.37,2013-06-19 13:23:00,
2013-06-19 09:24:00,62.4,43.5,30.01,East,90,2.4,2.4,50,0.00,CLR,,0.00,WeatherDisplay:10.37,2013-06-19 13:24:00,
2013-06-19 09:25:00,62.4,43.5,30.01,ENE,68,2.3,2.3,50,0.00,CLR,,0.00,WeatherDisplay:10.37,2013-06-19 13:25:00,
2013-06-19 09:27:00,62.8,42.2,30.01,ENE,68,2.3,2.3,47,0.00,CLR,,0.00,WeatherDisplay:10.37,2013-06-19 13:27:00,
2013-06-19 09:28:00,63.0,43.0,30.04,North,0,1.2,1.2,48,0.00,CLR,,0.00,WeatherDisplay:10.37,2013-06-19 13:28:00,
2013-06-19 09:30:00,63.0,42.4,30.04,East,90,2.3,2.3,47,0.00,CLR,,0.00,WeatherDisplay:10.37,2013-06-19 13:30:00,
2013-06-19 09:32:00,62.8,42.2,30.04,ESE,112,0.0,0.0,47,0.00,CLR,,0.00,WeatherDisplay:10.37,2013-06-19 13:32:00,
2013-06-19 09:33:00,62.8,42.2,30.04,ESE,112,0.0,0.0,47,0.00,CLR,,0.00,WeatherDisplay:10.37,2013-06-19 13:33:00,
2013-06-19 09:35:00,62.8,42.2,30.04,East,90,0.0,0.0,47,0.00,CLR,,0.00,WeatherDisplay:10.37,2013-06-19 13:35:00,
2013-06-19 09:36:00,62.8,42.2,30.04,SE,135,0.0,0.0,47,0.00,CLR,,0.00,WeatherDisplay:10.37,2013-06-19 13:36:00,
2013-06-19 09:37:00,63.0,43.0,30.04,ESE,112,0.0,0.0,48,0.00,CLR,,0.00,WeatherDisplay:10.37,2013-06-19 13:37:00,
2013-06-19 09:38:00,63.1,42.6,30.04,ESE,112,0.0,0.0,47,0.00,CLR,,0.00,WeatherDisplay:10.37,2013-06-19 13:38:00,
2013-06-19 09:40:00,63.0,41.8,30.04,ESE,112,0.0,0.0,46,0.00,CLR,,0.00,WeatherDisplay:10.37,2013-06-19 13:40:00,
2013-06-19 09:41:00,63.0,41.8,30.04,ESE,112,0.0,0.0,46,0.00,CLR,,0.00,WeatherDisplay:10.37,2013-06-19 13:41:00,
2013-06-19 09:42:00,63.1,42.0,30.04,ESE,112,2.0,0.0,46,0.00,CLR,,0.00,WeatherDisplay:10.37,2013-06-19 13:42:00,
2013-06-19 09:43:00,63.1,40.9,30.04,ESE,112,2.9,2.9,44,0.00,CLR,,0.00,WeatherDisplay:10.37,2013-06-19 13:43:00,
2013-06-19 09:45:00,62.8,40.5,30.04,ESE,112,4.6,4.6,44,0.00,CLR,,0.00,WeatherDisplay:10.37,2013-06-19 13:45:00,
2013-06-19 09:46:00,62.8,40.5,30.04,East,90,4.6,4.6,44,0.00,CLR,,0.00,WeatherDisplay:10.37,2013-06-19 13:46:00,
2013-06-19 09:48:00,63.0,40.7,30.04,NNE,22,2.6,2.6,44,0.00,CLR,,0.00,WeatherDisplay:10.37,2013-06-19 13:48:00,
2013-06-19 09:50:00,63.3,41.0,30.04,East,90,4.6,4.6,44,0.00,CLR,,0.00,WeatherDisplay:10.37,2013-06-19 13:50:00,
2013-06-19 09:51:00,63.3,41.0,30.04,SSE,158,2.4,0.0,44,0.00,CLR,,0.00,WeatherDisplay:10.37,2013-06-19 13:51:00,
2013-06-19 09:53:00,63.3,41.0,30.04,SE,135,1.2,0.0,44,0.00,CLR,,0.00,WeatherDisplay:10.37,2013-06-19 13:53:00,
2013-06-19 09:56:00,63.5,41.2,30.04,SE,135,1.2,0.0,44,0.00,CLR,,0.00,WeatherDisplay:10.37,2013-06-19 13:56:00,
2013-06-19 09:58:00,63.9,41.5,30.04,SSE,158,0.0,0.0,44,0.00,CLR,,0.00,WeatherDisplay:10.37,2013-06-19 13:58:00,
2013-06-19 09:59:00,63.9,41.5,30.04,SSE,158,0.0,0.0,44,0.00,CLR,,0.00,WeatherDisplay:10.37,2013-06-19 13:59:00,
2013-06-19 10:01:00,64.4,42.0,30.04,NNW,338,2.0,0.0,44,0.00,CLR,,0.00,WeatherDisplay:10.37,2013-06-19 14:01:00,
2013-06-19 10:04:00,64.8,42.3,30.04,ESE,112,3.5,3.5,44,0.00,CLR,,0.00,WeatherDisplay:10.37,2013-06-19 14:04:00,
2013-06-19 10:06:00,64.9,42.5,30.04,ESE,112,3.5,3.5,44,0.00,CLR,,0.00,WeatherDisplay:10.37,2013-06-19 14:06:00,
2013-06-19 10:09:00,64.8,42.3,30.04,East,90,5.8,5.8,44,0.00,CLR,,0.00,WeatherDisplay:10.37,2013-06-19 14:09:00,
2013-06-19 10:11:00,64.9,42.5,30.04,ESE,112,3.3,3.3,44,0.00,CLR,,0.00,WeatherDisplay:10.37,2013-06-19 14:11:00,
2013-06-19 10:14:00,64.8,41.7,30.01,NNE,22,3.5,3.5,43,0.00,CLR,,0.00,WeatherDisplay:10.37,2013-06-19 14:14:00,
2013-06-19 10:15:00,64.8,41.1,30.01,East,90,3.5,3.5,42,0.00,CLR,,0.00,WeatherDisplay:10.37,2013-06-19 14:15:00,
2013-06-19 10:16:00,64.8,41.7,30.01,ENE,68,3.5,3.5,43,0.00,CLR,,0.00,WeatherDisplay:10.37,2013-06-19 14:16:00,
2013-06-19 10:17:00,64.8,41.7,30.01,East,90,2.4,2.4,43,0.00,CLR,,0.00,WeatherDisplay:10.37,2013-06-19 14:17:00,
2013-06-19 10:19:00,65.1,42.7,30.01,NNW,338,2.0,0.0,44,0.00,CLR,,0.00,WeatherDisplay:10.37,2013-06-19 14:19:00,
2013-06-19 10:20:00,64.9,41.9,30.01,ESE,112,2.9,2.9,43,0.00,CLR,,0.00,WeatherDisplay:10.37,2013-06-19 14:20:00,
2013-06-19 10:21:00,65.1,42.7,30.01,ESE,112,4.6,4.6,44,0.00,CLR,,0.00,WeatherDisplay:10.37,2013-06-19 14:21:00,
2013-06-19 10:22:00,64.9,42.5,30.01,ESE,112,3.6,3.6,44,0.00,CLR,,0.00,WeatherDisplay:10.37,2013-06-19 14:22:00,
2013-06-19 10:24:00,65.1,42.1,30.01,ESE,112,3.5,3.5,43,0.00,CLR,,0.00,WeatherDisplay:10.37,2013-06-19 14:24:00,
2013-06-19 10:25:00,65.1,42.1,30.01,ESE,112,3.5,3.5,43,0.00,CLR,,0.00,WeatherDisplay:10.37,2013-06-19 14:25:00,
2013-06-19 10:26:00,65.1,42.7,30.01,NE,45,2.6,2.6,44,0.00,CLR,,0.00,WeatherDisplay:10.37,2013-06-19 14:26:00,
2013-06-19 10:28:00,64.9,41.9,30.04,ESE,112,4.0,4.0,43,0.00,CLR,,0.00,WeatherDisplay:10.37,2013-06-19 14:28:00,
2013-06-19 10:29:00,65.1,42.1,30.04,ESE,112,4.6,4.6,43,0.00,CLR,,0.00,WeatherDisplay:10.37,2013-06-19 14:29:00,
2013-06-19 10:30:00,65.1,42.1,30.04,ESE,112,2.3,2.3,43,0.00,CLR,,0.00,WeatherDisplay:10.37,2013-06-19 14:30:00,
2013-06-19 10:31:00,65.1,42.7,30.04,ESE,112,2.3,2.3,44,0.00,CLR,,0.00,WeatherDisplay:10.37,2013-06-19 14:31:00,
2013-06-19 10:33:00,65.5,43.0,30.04,NE,45,2.9,2.9,44,0.00,CLR,,0.00,WeatherDisplay:10.37,2013-06-19 14:33:00,
2013-06-19 10:35:00,65.7,42.5,30.04,East,90,2.3,2.3,43,0.00,CLR,,0.00,WeatherDisplay:10.37,2013-06-19 14:35:00,
2013-06-19 10:36:00,65.8,43.3,30.04,ESE,112,2.3,2.3,44,0.00,CLR,,0.00,WeatherDisplay:10.37,2013-06-19 14:36:00,
2013-06-19 10:37:00,65.5,42.4,30.04,ESE,112,2.6,2.6,43,0.00,CLR,,0.00,WeatherDisplay:10.37,2013-06-19 14:37:00,
2013-06-19 10:38:00,65.5,42.4,30.04,ESE,112,2.3,2.3,43,0.00,CLR,,0.00,WeatherDisplay:10.37,2013-06-19 14:38:00,
2013-06-19 10:40:00,65.3,42.2,30.04,SE,135,0.0,0.0,43,0.00,CLR,,0.00,WeatherDisplay:10.37,2013-06-19 14:40:00,
2013-06-19 10:41:00,65.3,42.2,30.04,SE,135,1.2,0.0,43,0.00,CLR,,0.00,WeatherDisplay:10.37,2013-06-19 14:41:00,
2013-06-19 10:42:00,65.5,42.4,30.04,SE,135,0.0,0.0,43,0.00,CLR,,0.00,WeatherDisplay:10.37,2013-06-19 14:42:00,
2013-06-19 10:43:00,65.5,42.4,30.04,ESE,112,1.2,0.0,43,0.00,CLR,,0.00,WeatherDisplay:10.37,2013-06-19 14:43:00,
2013-06-19 10:45:00,65.8,40.8,30.04,ESE,112,3.5,3.5,40,0.00,CLR,,0.00,WeatherDisplay:10.37,2013-06-19 14:45:00,
2013-06-19 10:46:00,65.8,40.8,30.04,ESE,112,2.3,0.0,40,0.00,CLR,,0.00,WeatherDisplay:10.37,2013-06-19 14:46:00,
2013-06-19 10:47:00,66.0,41.6,30.04,ESE,112,4.3,0.0,41,0.00,CLR,,0.00,WeatherDisplay:10.37,2013-06-19 14:47:00,
2013-06-19 10:48:00,65.8,40.2,30.04,East,90,4.6,4.6,39,0.00,CLR,,0.00,WeatherDisplay:10.37,2013-06-19 14:48:00,
2013-06-19 10:51:00,65.8,39.5,30.04,SE,135,3.5,3.5,38,0.00,CLR,,0.00,WeatherDisplay:10.37,2013-06-19 14:51:00,
2013-06-19 10:53:00,65.8,40.2,30.04,ESE,112,1.2,0.0,39,0.00,CLR,,0.00,WeatherDisplay:10.37,2013-06-19 14:53:00,
2013-06-19 10:56:00,66.2,40.5,30.04,SSE,158,0.0,0.9,39,0.00,CLR,,0.00,WeatherDisplay:10.37,2013-06-19 14:56:00,
2013-06-19 10:57:00,66.0,39.7,30.04,SSE,158,2.3,0.0,38,0.00,CLR,,0.00,WeatherDisplay:10.37,2013-06-19 14:57:00,
2013-06-19 10:58:00,66.0,39.7,30.04,ESE,112,0.0,0.0,38,0.00,CLR,,0.00,WeatherDisplay:10.37,2013-06-19 14:58:00,
2013-06-19 10:59:00,66.0,39.7,30.04,ESE,112,0.0,0.0,38,0.00,CLR,,0.00,WeatherDisplay:10.37,2013-06-19 14:59:00,
2013-06-19 11:01:00,66.4,40.0,30.04,ESE,112,1.6,1.6,38,0.00,CLR,,0.00,WeatherDisplay:10.37,2013-06-19 15:01:00,
2013-06-19 11:02:00,66.4,40.0,30.04,SE,135,3.5,3.5,38,0.00,CLR,,0.00,WeatherDisplay:10.37,2013-06-19 15:02:00,
2013-06-19 11:03:00,66.6,39.5,30.04,ESE,112,4.6,4.6,37,0.00,CLR,,0.00,WeatherDisplay:10.37,2013-06-19 15:03:00,
2013-06-19 11:04:00,66.6,40.8,30.04,SE,135,4.6,4.6,39,0.00,CLR,,0.00,WeatherDisplay:10.37,2013-06-19 15:04:00,
2013-06-19 11:06:00,66.6,39.5,30.04,SE,135,3.5,3.5,37,0.00,CLR,,0.00,WeatherDisplay:10.37,2013-06-19 15:06:00,
2013-06-19 11:07:00,66.6,39.5,30.04,ENE,68,3.5,3.5,37,0.00,CLR,,0.00,WeatherDisplay:10.37,2013-06-19 15:07:00,
2013-06-19 11:08:00,66.6,40.1,30.04,ESE,112,2.6,2.6,38,0.00,CLR,,0.00,WeatherDisplay:10.37,2013-06-19 15:08:00,
2013-06-19 11:09:00,66.6,39.5,30.04,SE,135,3.5,3.5,37,0.00,CLR,,0.00,WeatherDisplay:10.37,2013-06-19 15:09:00,
2013-06-19 11:11:00,66.6,40.8,30.04,ESE,112,2.3,2.3,39,0.00,CLR,,0.00,WeatherDisplay:10.37,2013-06-19 15:11:00,
2013-06-19 11:12:00,66.6,40.8,30.04,ENE,68,1.6,0.0,39,0.00,CLR,,0.00,WeatherDisplay:10.37,2013-06-19 15:12:00,
2013-06-19 11:13:00,66.7,40.3,30.01,East,90,2.3,2.3,38,0.00,CLR,,0.00,WeatherDisplay:10.37,2013-06-19 15:13:00,
2013-06-19 11:14:00,66.7,39.6,30.01,ESE,112,3.5,3.5,37,0.00,CLR,,0.00,WeatherDisplay:10.37,2013-06-19 15:14:00,
2013-06-19 11:17:00,67.1,40.6,30.01,ESE,112,2.3,2.3,38,0.00,CLR,,0.00,WeatherDisplay:10.37,2013-06-19 15:17:00,
2013-06-19 11:18:00,67.1,42.0,30.01,ESE,112,2.4,2.4,40,0.00,CLR,,0.00,WeatherDisplay:10.37,2013-06-19 15:18:00,
2013-06-19 11:19:00,67.1,41.3,30.01,NE,45,3.5,3.5,39,0.00,CLR,,0.00,WeatherDisplay:10.37,2013-06-19 15:19:00,
2013-06-19 11:22:00,67.5,41.0,30.01,ESE,112,3.5,3.5,38,0.00,CLR,,0.00,WeatherDisplay:10.37,2013-06-19 15:22:00,
2013-06-19 11:23:00,67.5,41.0,30.01,ESE,112,2.3,2.3,38,0.00,CLR,,0.00,WeatherDisplay:10.37,2013-06-19 15:23:00,
2013-06-19 11:24:00,67.3,40.8,30.01,NE,45,4.6,4.6,38,0.00,CLR,,0.00,WeatherDisplay:10.37,2013-06-19 15:24:00,
2013-06-19 11:27:00,67.1,40.6,30.01,East,90,3.5,3.5,38,0.00,CLR,,0.00,WeatherDisplay:10.37,2013-06-19 15:27:00,
2013-06-19 11:28:00,67.1,40.6,30.01,SE,135,3.5,3.5,38,0.00,CLR,,0.00,WeatherDisplay:10.37,2013-06-19 15:28:00,
2013-06-19 11:29:00,67.1,41.3,30.01,ESE,112,2.4,2.4,39,0.00,CLR,,0.00,WeatherDisplay:10.37,2013-06-19 15:29:00,
2013-06-19 11:30:00,67.1,41.3,30.01,East,90,3.5,3.5,39,0.00,CLR,,0.00,WeatherDisplay:10.37,2013-06-19 15:30:00,
2013-06-19 11:32:00,67.3,40.8,30.01,SSW,202,3.5,3.5,38,0.00,CLR,,0.00,WeatherDisplay:10.37,2013-06-19 15:32:00,
2013-06-19 11:33:00,67.1,39.2,30.01,ESE,112,3.5,3.5,36,0.00,CLR,,0.00,WeatherDisplay:10.37,2013-06-19 15:33:00,
2013-06-19 11:34:00,67.1,39.2,30.01,ESE,112,3.5,3.5,36,0.00,CLR,,0.00,WeatherDisplay:10.37,2013-06-19 15:34:00,
2013-06-19 11:35:00,67.1,39.9,30.01,SSE,158,3.5,3.5,37,0.00,CLR,,0.00,WeatherDisplay:10.37,2013-06-19 15:35:00,
2013-06-19 11:37:00,67.5,40.3,30.01,ESE,112,3.5,3.5,37,0.00,CLR,,0.00,WeatherDisplay:10.37,2013-06-19 15:37:00,
2013-06-19 11:39:00,67.6,40.4,30.01,ESE,112,0.0,0.0,37,0.00,CLR,,0.00,WeatherDisplay:10.37,2013-06-19 15:39:00,
2013-06-19 11:40:00,67.8,41.3,30.01,East,90,0.0,0.0,38,0.00,CLR,,0.00,WeatherDisplay:10.37,2013-06-19 15:40:00,
2013-06-19 11:42:00,68.0,40.0,30.01,NNE,22,3.1,0.0,36,0.00,CLR,,0.00,WeatherDisplay:10.37,2013-06-19 15:42:00,
2013-06-19 11:44:00,68.0,39.3,30.04,ESE,112,3.5,3.5,35,0.00,CLR,,0.00,WeatherDisplay:10.37,2013-06-19 15:44:00,
2013-06-19 11:45:00,68.0,39.3,30.04,ESE,112,3.5,3.5,35,0.00,CLR,,0.00,WeatherDisplay:10.37,2013-06-19 15:45:00,
2013-06-19 11:47:00,68.2,39.5,30.04,NNE,22,3.3,3.3,35,0.00,CLR,,0.00,WeatherDisplay:10.37,2013-06-19 15:47:00,
2013-06-19 11:50:00,68.5,39.0,30.04,ENE,68,3.5,3.5,34,0.00,CLR,,0.00,WeatherDisplay:10.37,2013-06-19 15:50:00,
2013-06-19 11:53:00,68.7,39.2,30.04,NE,45,2.3,0.0,34,0.00,CLR,,0.00,WeatherDisplay:10.37,2013-06-19 15:53:00,
2013-06-19 11:55:00,69.1,39.5,30.04,SE,135,2.3,2.3,34,0.00,CLR,,0.00,WeatherDisplay:10.37,2013-06-19 15:55:00,
2013-06-19 11:58:00,68.5,37.5,30.01,NE,45,4.6,4.6,32,0.00,CLR,,0.00,WeatherDisplay:10.37,2013-06-19 15:58:00,
2013-06-19 12:00:00,68.5,37.5,30.01,NE,45,2.3,2.3,32,0.00,CLR,,0.00,WeatherDisplay:10.37,2013-06-19 16:00:00,
2013-06-19 12:01:00,69.1,38.0,30.01,ESE,112,2.3,2.3,32,0.00,CLR,,0.00,WeatherDisplay:10.37,2013-06-19 16:01:00,
2013-06-19 12:03:00,69.4,39.8,30.01,SE,135,4.6,4.6,34,0.00,CLR,,0.00,WeatherDisplay:10.37,2013-06-19 16:03:00,
2013-06-19 12:05:00,69.4,39.8,30.01,ESE,112,0.0,0.0,34,0.00,CLR,,0.00,WeatherDisplay:10.37,2013-06-19 16:05:00,
2013-06-19 12:06:00,69.6,39.2,30.01,East,90,1.2,0.0,33,0.00,CLR,,0.00,WeatherDisplay:10.37,2013-06-19 16:06:00,
2013-06-19 12:09:00,70.2,39.7,30.01,ESE,112,4.9,0.0,33,0.00,CLR,,0.00,WeatherDisplay:10.37,2013-06-19 16:09:00,
2013-06-19 12:10:00,68.7,37.7,30.01,ESE,112,5.8,5.8,32,0.00,CLR,,0.00,WeatherDisplay:10.37,2013-06-19 16:10:00,
2013-06-19 12:11:00,69.3,38.9,30.01,SSE,158,1.2,1.2,33,0.00,CLR,,0.00,WeatherDisplay:10.37,2013-06-19 16:11:00,
2013-06-19 12:14:00,69.8,38.6,30.04,SSE,158,0.0,0.0,32,0.00,CLR,,0.00,WeatherDisplay:10.37,2013-06-19 16:14:00,
2013-06-19 12:15:00,69.6,38.4,30.04,SE,135,1.2,0.0,32,0.00,CLR,,0.00,WeatherDisplay:10.37,2013-06-19 16:15:00,
2013-06-19 12:16:00,70.2,38.9,30.04,SE,135,1.2,0.0,32,0.00,CLR,,0.00,WeatherDisplay:10.37,2013-06-19 16:16:00,
2013-06-19 12:19:00,70.9,39.5,30.04,SSW,202,1.2,0.0,32,0.00,CLR,,0.00,WeatherDisplay:10.37,2013-06-19 16:19:00,
2013-06-19 12:20:00,70.9,39.5,30.04,SE,135,1.2,0.0,32,0.00,CLR,,0.00,WeatherDisplay:10.37,2013-06-19 16:20:00,
2013-06-19 12:21:00,71.2,39.9,30.04,ESE,112,1.2,0.0,32,0.00,CLR,,0.00,WeatherDisplay:10.37,2013-06-19 16:21:00,
2013-06-19 12:24:00,70.5,34.9,30.04,SE,135,4.6,4.6,27,0.00,CLR,,0.00,WeatherDisplay:10.37,2013-06-19 16:24:00,
2013-06-19 12:25:00,70.2,32.7,30.04,SSE,158,1.2,0.0,25,0.00,CLR,,0.00,WeatherDisplay:10.37,2013-06-19 16:25:00,
2013-06-19 12:26:00,70.5,34.9,30.04,SSW,202,1.2,1.2,27,0.00,CLR,,0.00,WeatherDisplay:10.37,2013-06-19 16:26:00,
2013-06-19 12:27:00,70.5,34.9,30.04,SE,135,2.0,2.0,27,0.00,CLR,,0.00,WeatherDisplay:10.37,2013-06-19 16:27:00,
2013-06-19 12:29:00,70.7,36.0,30.01,ESE,112,3.6,3.6,28,0.00,CLR,,0.00,WeatherDisplay:10.37,2013-06-19 16:29:00,
2013-06-19 12:31:00,70.7,36.0,30.01,ESE,112,3.5,0.0,28,0.00,CLR,,0.00,WeatherDisplay:10.37,2013-06-19 16:31:00,
2013-06-19 12:32:00,70.7,36.0,30.01,ESE,112,0.0,0.0,28,0.00,CLR,,0.00,WeatherDisplay:10.37,2013-06-19 16:32:00,
2013-06-19 12:35:00,70.3,34.8,30.01,ESE,112,1.4,0.0,27,0.00,CLR,,0.00,WeatherDisplay:10.37,2013-06-19 16:35:00,
2013-06-19 12:36:00,70.7,36.9,30.01,South,180,2.3,2.3,29,0.00,CLR,,0.00,WeatherDisplay:10.37,2013-06-19 16:36:00,
2013-06-19 12:37:00,70.7,36.9,30.01,SE,135,2.9,0.0,29,0.00,CLR,,0.00,WeatherDisplay:10.37,2013-06-19 16:37:00,
2013-06-19 12:40:00,70.7,34.1,30.01,ENE,68,3.1,3.1,26,0.00,CLR,,0.00,WeatherDisplay:10.37,2013-06-19 16:40:00,
2013-06-19 12:41:00,71.6,33.9,30.01,ESE,112,0.0,0.0,25,0.00,CLR,,0.00,WeatherDisplay:10.37,2013-06-19 16:41:00,
2013-06-19 12:42:00,71.6,33.9,30.01,ESE,112,0.0,0.0,25,0.00,CLR,,0.00,WeatherDisplay:10.37,2013-06-19 16:42:00,
2013-06-19 12:43:00,71.1,33.4,30.01,East,90,3.5,0.0,25,0.00,CLR,,0.00,WeatherDisplay:10.37,2013-06-19 16:43:00,
2013-06-19 12:45:00,70.9,33.3,30.04,ESE,112,3.5,3.5,25,0.00,CLR,,0.00,WeatherDisplay:10.37,2013-06-19 16:45:00,
2013-06-19 12:47:00,71.6,32.9,30.04,ESE,112,2.3,0.0,24,0.00,CLR,,0.00,WeatherDisplay:10.37,2013-06-19 16:47:00,
2013-06-19 12:48:00,71.8,33.0,30.04,ESE,112,2.3,2.3,24,0.00,CLR,,0.00,WeatherDisplay:10.37,2013-06-19 16:48:00,
2013-06-19 12:50:00,71.2,32.6,30.04,ESE,112,0.0,0.0,24,0.00,CLR,,0.00,WeatherDisplay:10.37,2013-06-19 16:50:00,
2013-06-19 12:52:00,70.9,31.2,30.04,SE,135,2.9,2.9,23,0.00,CLR,,0.00,WeatherDisplay:10.37,2013-06-19 16:52:00,
2013-06-19 12:53:00,71.2,31.5,30.04,ESE,112,2.3,2.3,23,0.00,CLR,,0.00,WeatherDisplay:10.37,2013-06-19 16:53:00,
2013-06-19 12:55:00,71.8,33.0,30.04,ESE,112,1.2,0.0,24,0.00,CLR,,0.00,WeatherDisplay:10.37,2013-06-19 16:55:00,
2013-06-19 12:57:00,71.8,32.0,30.04,ESE,112,2.3,2.3,23,0.00,CLR,,0.00,WeatherDisplay:10.37,2013-06-19 16:57:00,
2013-06-19 12:58:00,72.0,32.1,30.04,ESE,112,2.3,2.3,23,0.00,CLR,,0.00,WeatherDisplay:10.37,2013-06-19 16:58:00,
2013-06-19 13:00:00,72.0,32.1,30.04,ESE,112,0.0,0.0,23,0.00,CLR,,0.00,WeatherDisplay:10.37,2013-06-19 17:00:00,
2013-06-19 13:02:00,72.5,31.5,30.04,SSE,158,2.3,2.3,22,0.00,CLR,,0.00,WeatherDisplay:10.37,2013-06-19 17:02:00,
2013-06-19 13:03:00,72.0,31.0,30.04,ESE,112,3.5,3.5,22,0.00,CLR,,0.00,WeatherDisplay:10.37,2013-06-19 17:03:00,
2013-06-19 13:05:00,71.8,30.9,30.04,SSE,158,2.3,2.3,22,0.00,CLR,,0.00,WeatherDisplay:10.37,2013-06-19 17:05:00,
2013-06-19 13:07:00,72.1,31.2,30.04,ESE,112,2.3,2.3,22,0.00,CLR,,0.00,WeatherDisplay:10.37,2013-06-19 17:07:00,
2013-06-19 13:08:00,72.1,31.2,30.04,East,90,2.3,2.3,22,0.00,CLR,,0.00,WeatherDisplay:10.37,2013-06-19 17:08:00,
2013-06-19 13:09:00,72.3,31.3,30.04,ESE,112,2.3,0.0,22,0.00,CLR,,0.00,WeatherDisplay:10.37,2013-06-19 17:09:00,
2013-06-19 13:10:00,72.0,31.0,30.04,NE,45,4.3,0.0,22,0.00,CLR,,0.00,WeatherDisplay:10.37,2013-06-19 17:10:00,
2013-06-19 13:12:00,72.0,31.0,30.04,ESE,112,4.6,0.0,22,0.00,CLR,,0.00,WeatherDisplay:10.37,2013-06-19 17:12:00,
2013-06-19 13:13:00,72.5,31.5,30.01,ESE,112,0.0,0.0,22,0.00,CLR,,0.00,WeatherDisplay:10.37,2013-06-19 17:13:00,
2013-06-19 13:14:00,72.5,31.5,30.01,ESE,112,0.0,0.0,22,0.00,CLR,,0.00,WeatherDisplay:10.37,2013-06-19 17:14:00,
2013-06-19 13:15:00,72.5,32.6,30.01,East,90,4.6,0.0,23,0.00,CLR,,0.00,WeatherDisplay:10.37,2013-06-19 17:15:00,
2013-06-19 13:17:00,72.1,31.2,30.01,SE,135,4.6,4.6,22,0.00,CLR,,0.00,WeatherDisplay:10.37,2013-06-19 17:17:00,
2013-06-19 13:18:00,72.0,31.0,30.01,East,90,4.6,4.6,22,0.00,CLR,,0.00,WeatherDisplay:10.37,2013-06-19 17:18:00,
2013-06-19 13:19:00,72.1,31.2,30.01,ESE,112,2.3,2.3,22,0.00,CLR,,0.00,WeatherDisplay:10.37,2013-06-19 17:19:00,
2013-06-19 13:21:00,72.9,31.8,30.01,ESE,112,3.8,0.0,22,0.00,CLR,,0.00,WeatherDisplay:10.37,2013-06-19 17:21:00,
2013-06-19 13:22:00,72.7,31.6,30.01,ESE,112,4.6,4.6,22,0.00,CLR,,0.00,WeatherDisplay:10.37,2013-06-19 17:22:00,
2013-06-19 13:23:00,72.7,31.6,30.01,ESE,112,2.3,2.3,22,0.00,CLR,,0.00,WeatherDisplay:10.37,2013-06-19 17:23:00,
2013-06-19 13:24:00,73.0,33.0,30.01,SSE,158,2.3,2.3,23,0.00,CLR,,0.00,WeatherDisplay:10.37,2013-06-19 17:24:00,
2013-06-19 13:26:00,73.0,31.9,30.01,ESE,112,2.3,0.0,22,0.00,CLR,,0.00,WeatherDisplay:10.37,2013-06-19 17:26:00,
2013-06-19 13:28:00,72.7,30.5,30.04,ESE,112,3.5,3.5,21,0.00,CLR,,0.00,WeatherDisplay:10.37,2013-06-19 17:28:00,
2013-06-19 13:29:00,72.7,31.6,30.04,SE,135,3.5,3.5,22,0.00,CLR,,0.00,WeatherDisplay:10.37,2013-06-19 17:29:00,
2013-06-19 13:31:00,73.2,32.1,30.04,SSE,158,1.2,1.2,22,0.00,CLR,,0.00,WeatherDisplay:10.37,2013-06-19 17:31:00,
2013-06-19 13:33:00,73.2,32.1,30.04,SSE,158,1.2,0.0,22,0.00,CLR,,0.00,WeatherDisplay:10.37,2013-06-19 17:33:00,
2013-06-19 13:34:00,73.2,32.1,30.04,South,180,0.0,0.0,22,0.00,CLR,,0.00,WeatherDisplay:10.37,2013-06-19 17:34:00,
2013-06-19 13:36:00,72.7,31.6,30.04,SSE,158,3.5,3.5,22,0.00,CLR,,0.00,WeatherDisplay:10.37,2013-06-19 17:36:00,
2013-06-19 13:38:00,72.1,31.2,30.04,East,90,2.4,2.4,22,0.00,CLR,,0.00,WeatherDisplay:10.37,2013-06-19 17:38:00,
2013-06-19 13:39:00,72.1,31.2,30.04,NNE,22,2.3,2.3,22,0.00,CLR,,0.00,WeatherDisplay:10.37,2013-06-19 17:39:00,
2013-06-19 13:41:00,72.3,31.3,30.04,ESE,112,3.5,3.5,22,0.00,CLR,,0.00,WeatherDisplay:10.37,2013-06-19 17:41:00,
2013-06-19 13:43:00,72.5,31.5,30.01,ESE,112,4.6,4.6,22,0.00,CLR,,0.00,WeatherDisplay:10.37,2013-06-19 17:43:00,
2013-06-19 13:44:00,72.5,31.5,30.01,ESE,112,2.9,2.9,22,0.00,CLR,,0.00,WeatherDisplay:10.37,2013-06-19 17:44:00,
2013-06-19 13:45:00,72.3,30.2,30.01,East,90,3.5,3.5,21,0.00,CLR,,0.00,WeatherDisplay:10.37,2013-06-19 17:45:00,
2013-06-19 13:46:00,72.3,30.2,30.01,SSE,158,1.2,1.2,21,0.00,CLR,,0.00,WeatherDisplay:10.37,2013-06-19 17:46:00,
2013-06-19 13:48:00,72.7,31.6,30.01,ESE,112,4.6,4.6,22,0.00,CLR,,0.00,WeatherDisplay:10.37,2013-06-19 17:48:00,
2013-06-19 13:49:00,72.3,31.3,30.01,ESE,112,5.8,5.8,22,0.00,CLR,,0.00,WeatherDisplay:10.37,2013-06-19 17:49:00,
2013-06-19 13:50:00,72.1,31.2,30.01,SE,135,5.8,5.8,22,0.00,CLR,,0.00,WeatherDisplay:10.37,2013-06-19 17:50:00,
2013-06-19 13:51:00,72.3,31.3,30.01,SSW,202,2.3,2.3,22,0.00,CLR,,0.00,WeatherDisplay:10.37,2013-06-19 17:51:00,
2013-06-19 13:53:00,72.9,31.8,30.01,SSE,158,0.0,0.0,22,0.00,CLR,,0.00,WeatherDisplay:10.37,2013-06-19 17:53:00,
2013-06-19 13:54:00,73.6,31.2,30.01,ESE,112,0.0,0.0,21,0.00,CLR,,0.00,WeatherDisplay:10.37,2013-06-19 17:54:00,
2013-06-19 13:55:00,73.6,31.2,30.01,ESE,112,0.0,0.0,21,0.00,CLR,,0.00,WeatherDisplay:10.37,2013-06-19 17:55:00,
2013-06-19 13:56:00,73.4,31.1,30.01,South,180,0.0,0.0,21,0.00,CLR,,0.00,WeatherDisplay:10.37,2013-06-19 17:56:00,
2013-06-19 13:58:00,73.8,31.4,30.04,ESE,112,0.0,0.0,21,0.00,CLR,,0.00,WeatherDisplay:10.37,2013-06-19 17:58:00,
2013-06-19 13:59:00,74.3,31.8,30.04,ESE,112,0.0,0.0,21,0.00,CLR,,0.00,WeatherDisplay:10.37,2013-06-19 17:59:00,
2013-06-19 14:00:00,73.9,31.5,30.04,ESE,112,0.0,0.0,21,0.00,CLR,,0.00,WeatherDisplay:10.37,2013-06-19 18:00:00,
2013-06-19 14:01:00,73.9,31.5,30.04,ESE,112,0.0,0.0,21,0.00,CLR,,0.00,WeatherDisplay:10.37,2013-06-19 18:01:00,
2013-06-19 14:03:00,73.8,31.4,30.04,SE,135,3.5,3.5,21,0.00,CLR,,0.00,WeatherDisplay:10.37,2013-06-19 18:03:00,
2013-06-19 14:04:00,73.9,31.5,30.04,ESE,112,2.4,2.4,21,0.00,CLR,,0.00,WeatherDisplay:10.37,2013-06-19 18:04:00,
2013-06-19 14:05:00,73.4,31.1,30.04,ENE,68,2.3,2.4,21,0.00,CLR,,0.00,WeatherDisplay:10.37,2013-06-19 18:05:00,
2013-06-19 14:06:00,73.4,31.1,30.04,WSW,248,2.3,2.3,21,0.00,CLR,,0.00,WeatherDisplay:10.37,2013-06-19 18:06:00,
2013-06-19 14:07:00,73.6,31.2,30.04,SE,135,2.3,2.3,21,0.00,CLR,,0.00,WeatherDisplay:10.37,2013-06-19 18:07:00,
2013-06-19 14:08:00,73.2,32.1,30.04,ESE,112,4.6,4.6,22,0.00,CLR,,0.00,WeatherDisplay:10.37,2013-06-19 18:08:00,
2013-06-19 14:09:00,73.2,32.1,30.04,ESE,112,2.4,0.0,22,0.00,CLR,,0.00,WeatherDisplay:10.37,2013-06-19 18:09:00,
2013-06-19 14:10:00,73.2,32.1,30.04,East,90,3.3,3.3,22,0.00,CLR,,0.00,WeatherDisplay:10.37,2013-06-19 18:10:00,
2013-06-19 14:11:00,73.4,31.1,30.04,ESE,112,3.5,3.5,21,0.00,CLR,,0.00,WeatherDisplay:10.37,2013-06-19 18:11:00,
2013-06-19 14:12:00,73.9,31.5,30.04,SSE,158,2.3,0.0,21,0.00,CLR,,0.00,WeatherDisplay:10.37,2013-06-19 18:12:00,
2013-06-19 14:13:00,73.9,31.5,30.04,ESE,112,3.5,3.5,21,0.00,CLR,,0.00,WeatherDisplay:10.37,2013-06-19 18:13:00,
2013-06-19 14:14:00,73.2,30.9,30.04,SSE,158,3.5,3.5,21,0.00,CLR,,0.00,WeatherDisplay:10.37,2013-06-19 18:14:00,
2013-06-19 14:16:00,73.9,31.5,30.04,SSE,158,1.2,1.2,21,0.00,CLR,,0.00,WeatherDisplay:10.37,2013-06-19 18:16:00,
2013-06-19 14:17:00,73.8,31.4,30.04,SSE,158,0.0,0.0,21,0.00,CLR,,0.00,WeatherDisplay:10.37,2013-06-19 18:17:00,
2013-06-19 14:19:00,74.3,31.8,30.04,SE,135,2.3,2.3,21,0.00,CLR,,0.00,WeatherDisplay:10.37,2013-06-19 18:19:00,
2013-06-19 14:21:00,74.5,32.0,30.04,NNE,22,2.3,2.3,21,0.00,CLR,,0.00,WeatherDisplay:10.37,2013-06-19 18:21:00,
2013-06-19 14:22:00,74.8,32.3,30.04,ESE,112,1.2,1.2,21,0.00,CLR,,0.00,WeatherDisplay:10.37,2013-06-19 18:22:00,
2013-06-19 14:24:00,74.7,32.1,30.04,ESE,112,0.0,0.0,21,0.00,CLR,,0.00,WeatherDisplay:10.37,2013-06-19 18:24:00,
2013-06-19 14:25:00,74.7,32.1,30.04,East,90,2.4,2.4,21,0.00,CLR,,0.00,WeatherDisplay:10.37,2013-06-19 18:25:00,
2013-06-19 14:26:00,74.8,32.3,30.04,ESE,112,2.3,2.3,21,0.00,CLR,,0.00,WeatherDisplay:10.37,2013-06-19 18:26:00,
2013-06-19 14:27:00,74.8,32.3,30.04,SE,135,2.3,2.3,21,0.00,CLR,,0.00,WeatherDisplay:10.37,2013-06-19 18:27:00,
2013-06-19 14:29:00,74.7,28.3,30.04,East,90,3.5,3.5,18,0.00,CLR,,0.00,WeatherDisplay:10.37,2013-06-19 18:29:00,
2013-06-19 14:30:00,74.7,28.3,30.04,NNW,338,5.8,5.8,18,0.00,CLR,,0.00,WeatherDisplay:10.37,2013-06-19 18:30:00,
2013-06-19 14:31:00,75.2,28.8,30.04,ESE,112,2.4,0.0,18,0.00,CLR,,0.00,WeatherDisplay:10.37,2013-06-19 18:31:00,
2013-06-19 14:32:00,75.2,28.8,30.04,East,90,3.5,3.5,18,0.00,CLR,,0.00,WeatherDisplay:10.37,2013-06-19 18:32:00,
2013-06-19 14:34:00,75.2,31.3,30.04,ESE,112,2.4,2.4,20,0.00,CLR,,0.00,WeatherDisplay:10.37,2013-06-19 18:34:00,
2013-06-19 14:35:00,75.6,31.6,30.04,South,180,2.3,2.3,20,0.00,CLR,,0.00,WeatherDisplay:10.37,2013-06-19 18:35:00,
2013-06-19 14:36:00,75.2,32.6,30.04,ESE,112,2.3,2.3,21,0.00,CLR,,0.00,WeatherDisplay:10.37,2013-06-19 18:36:00,
2013-06-19 14:37:00,75.2,32.6,30.04,SE,135,2.9,0.0,21,0.00,CLR,,0.00,WeatherDisplay:10.37,2013-06-19 18:37:00,
2013-06-19 14:38:00,75.0,32.4,30.04,South,180,2.3,2.3,21,0.00,CLR,,0.00,WeatherDisplay:10.37,2013-06-19 18:38:00,
2013-06-19 14:40:00,75.6,29.0,30.04,ESE,112,0.0,0.0,18,0.00,CLR,,0.00,WeatherDisplay:10.37,2013-06-19 18:40:00,
2013-06-19 14:41:00,76.1,29.5,30.04,ESE,112,0.0,0.0,18,0.00,CLR,,0.00,WeatherDisplay:10.37,2013-06-19 18:41:00,
2013-06-19 14:42:00,76.3,29.6,30.04,ESE,112,0.0,0.0,18,0.00,CLR,,0.00,WeatherDisplay:10.37,2013-06-19 18:42:00,
2013-06-19 14:43:00,76.3,29.6,30.04,ESE,112,0.0,0.0,18,0.00,CLR,,0.00,WeatherDisplay:10.37,2013-06-19 18:43:00,
2013-06-19 14:45:00,76.1,29.5,30.04,NW,315,0.0,0.0,18,0.00,CLR,,0.00,WeatherDisplay:10.37,2013-06-19 18:45:00,
2013-06-19 14:46:00,75.7,24.8,30.04,East,90,2.3,2.3,15,0.00,CLR,,0.00,WeatherDisplay:10.37,2013-06-19 18:46:00,
2013-06-19 14:47:00,76.3,29.6,30.04,ESE,112,3.5,3.5,18,0.00,CLR,,0.00,WeatherDisplay:10.37,2013-06-19 18:47:00,
2013-06-19 14:48:00,76.3,29.6,30.04,SE,135,0.0,0.0,18,0.00,CLR,,0.00,WeatherDisplay:10.37,2013-06-19 18:48:00,
2013-06-19 14:50:00,76.1,29.5,30.04,NNE,22,2.3,2.3,18,0.00,CLR,,0.00,WeatherDisplay:10.37,2013-06-19 18:50:00,
2013-06-19 14:51:00,75.7,24.8,30.04,East,90,3.5,3.5,15,0.00,CLR,,0.00,WeatherDisplay:10.37,2013-06-19 18:51:00,
2013-06-19 14:52:00,76.1,25.1,30.04,ENE,68,2.3,0.0,15,0.00,CLR,,0.00,WeatherDisplay:10.37,2013-06-19 18:52:00,
2013-06-19 14:53:00,76.1,25.1,30.04,ESE,112,2.3,2.3,15,0.00,CLR,,0.00,WeatherDisplay:10.37,2013-06-19 18:53:00,
2013-06-19 14:55:00,76.5,29.8,30.04,North,0,4.6,4.6,18,0.00,CLR,,0.00,WeatherDisplay:10.37,2013-06-19 18:55:00,
2013-06-19 14:57:00,76.8,30.1,30.04,ESE,112,2.2,2.2,18,0.00,CLR,,0.00,WeatherDisplay:10.37,2013-06-19 18:57:00,
2013-06-19 14:58:00,77.2,30.4,30.07,NNE,22,3.6,0.0,18,0.00,CLR,,0.00,WeatherDisplay:10.37,2013-06-19 18:58:00,
2013-06-19 15:00:00,76.8,25.6,30.07,North,0,2.3,0.0,15,0.00,CLR,,0.00,WeatherDisplay:10.37,2013-06-19 19:00:00,
2013-06-19 15:02:00,76.5,29.8,30.07,NNE,22,3.5,3.5,18,0.00,CLR,,0.00,WeatherDisplay:10.37,2013-06-19 19:02:00,
2013-06-19 15:03:00,76.5,29.8,30.07,North,0,3.6,0.0,18,0.00,CLR,,0.00,WeatherDisplay:10.37,2013-06-19 19:03:00,
2013-06-19 15:05:00,76.3,25.2,30.07,NE,45,3.5,3.5,15,0.00,CLR,,0.00,WeatherDisplay:10.37,2013-06-19 19:05:00,
2013-06-19 15:06:00,75.6,24.6,30.07,East,90,3.5,3.5,15,0.00,CLR,,0.00,WeatherDisplay:10.37,2013-06-19 19:06:00,
2013-06-19 15:07:00,75.7,24.8,30.07,ENE,68,3.5,3.5,15,0.00,CLR,,0.00,WeatherDisplay:10.37,2013-06-19 19:07:00,
2013-06-19 15:08:00,75.6,24.6,30.07,NE,45,4.0,4.0,15,0.00,CLR,,0.00,WeatherDisplay:10.37,2013-06-19 19:08:00,
2013-06-19 15:10:00,75.4,24.5,30.07,ESE,112,2.4,2.4,15,0.00,CLR,,0.00,WeatherDisplay:10.37,2013-06-19 19:10:00,
2013-06-19 15:11:00,75.4,24.5,30.07,ESE,112,2.4,2.4,15,0.00,CLR,,0.00,WeatherDisplay:10.37,2013-06-19 19:11:00,
2013-06-19 15:13:00,75.9,24.9,30.04,ESE,112,2.4,0.0,15,0.00,CLR,,0.00,WeatherDisplay:10.37,2013-06-19 19:13:00,
2013-06-19 15:14:00,76.1,29.5,30.04,SSE,158,2.6,0.0,18,0.00,CLR,,0.00,WeatherDisplay:10.37,2013-06-19 19:14:00,
2013-06-19 15:16:00,76.6,25.5,30.04,NE,45,2.3,0.0,15,0.00,CLR,,0.00,WeatherDisplay:10.37,2013-06-19 19:16:00,
2013-06-19 15:18:00,76.5,25.3,30.04,ESE,112,2.4,2.4,15,0.00,CLR,,0.00,WeatherDisplay:10.37,2013-06-19 19:18:00,
2013-06-19 15:19:00,76.5,25.3,30.04,East,90,3.5,3.5,15,0.00,CLR,,0.00,WeatherDisplay:10.37,2013-06-19 19:19:00,
2013-06-19 15:21:00,76.6,29.9,30.04,SSE,158,1.2,0.0,18,0.00,CLR,,0.00,WeatherDisplay:10.37,2013-06-19 19:21:00,
2013-06-19 15:23:00,75.9,24.9,30.04,North,0,4.6,4.6,15,0.00,CLR,,0.00,WeatherDisplay:10.37,2013-06-19 19:23:00,
2013-06-19 15:24:00,75.9,24.9,30.04,North,0,4.6,4.6,15,0.00,CLR,,0.00,WeatherDisplay:10.37,2013-06-19 19:24:00,
2013-06-19 15:26:00,76.1,25.1,30.04,East,90,2.3,2.4,15,0.00,CLR,,0.00,WeatherDisplay:10.37,2013-06-19 19:26:00,
2013-06-19 15:28:00,75.9,24.9,30.04,SE,135,2.3,2.3,15,0.00,CLR,,0.00,WeatherDisplay:10.37,2013-06-19 19:28:00,
2013-06-19 15:29:00,76.1,25.1,30.04,ENE,68,2.3,2.3,15,0.00,CLR,,0.00,WeatherDisplay:10.37,2013-06-19 19:29:00,
2013-06-19 15:31:00,76.5,25.3,30.04,ESE,112,2.3,2.3,15,0.00,CLR,,0.00,WeatherDisplay:10.37,2013-06-19 19:31:00,
2013-06-19 15:34:00,76.6,25.5,30.04,ENE,68,0.0,0.0,15,0.00,CLR,,0.00,WeatherDisplay:10.37,2013-06-19 19:34:00,
2013-06-19 15:36:00,77.4,26.1,30.04,NNE,22,0.0,0.0,15,0.00,CLR,,0.00,WeatherDisplay:10.37,2013-06-19 19:36:00,
2013-06-19 15:39:00,77.2,25.9,30.04,ENE,68,3.5,3.5,15,0.00,CLR,,0.00,WeatherDisplay:10.37,2013-06-19 19:39:00,
2013-06-19 15:40:00,77.7,26.4,30.04,SE,135,1.2,1.4,15,0.00,CLR,,0.00,WeatherDisplay:10.37,2013-06-19 19:40:00,
2013-06-19 15:41:00,77.9,26.5,30.04,SE,135,1.2,0.0,15,0.00,CLR,,0.00,WeatherDisplay:10.37,2013-06-19 19:41:00,
2013-06-19 15:44:00,76.8,25.6,30.04,SSE,158,2.3,2.3,15,0.00,CLR,,0.00,WeatherDisplay:10.37,2013-06-19 19:44:00,
2013-06-19 15:45:00,76.6,25.5,30.04,NNE,22,1.2,0.0,15,0.00,CLR,,0.00,WeatherDisplay:10.37,2013-06-19 19:45:00,
2013-06-19 15:47:00,77.0,25.8,30.04,NNW,338,2.3,2.3,15,0.00,CLR,,0.00,WeatherDisplay:10.37,2013-06-19 19:47:00,
2013-06-19 15:49:00,77.9,26.5,30.04,ENE,68,0.0,0.0,15,0.00,CLR,,0.00,WeatherDisplay:10.37,2013-06-19 19:49:00,
2013-06-19 15:50:00,77.9,26.5,30.04,ESE,112,0.0,0.0,15,0.00,CLR,,0.00,WeatherDisplay:10.37,2013-06-19 19:50:00,
2013-06-19 15:52:00,78.1,26.6,30.04,ENE,68,1.2,0.0,15,0.00,CLR,,0.00,WeatherDisplay:10.37,2013-06-19 19:52:00,
2013-06-19 15:54:00,77.4,26.1,30.04,ENE,68,4.6,4.6,15,0.00,CLR,,0.00,WeatherDisplay:10.37,2013-06-19 19:54:00,
2013-06-19 15:55:00,77.4,26.1,30.04,NE,45,5.4,5.4,15,0.00,CLR,,0.00,WeatherDisplay:10.37,2013-06-19 19:55:00,
2013-06-19 15:57:00,77.4,26.1,30.04,ENE,68,2.3,2.3,15,0.00,CLR,,0.00,WeatherDisplay:10.37,2013-06-19 19:57:00,
2013-06-19 15:59:00,78.3,26.8,30.01,ESE,112,2.2,0.0,15,0.00,CLR,,0.00,WeatherDisplay:10.37,2013-06-19 19:59:00,
2013-06-19 16:00:00,78.3,26.8,30.01,SSE,158,2.3,2.3,15,0.00,CLR,,0.00,WeatherDisplay:10.37,2013-06-19 20:00:00,
2013-06-19 16:01:00,77.5,26.2,30.01,ESE,112,4.6,4.6,15,0.00,CLR,,0.00,WeatherDisplay:10.37,2013-06-19 20:01:00,
2013-06-19 16:02:00,77.0,25.8,30.01,SW,225,4.6,4.6,15,0.00,CLR,,0.00,WeatherDisplay:10.37,2013-06-19 20:02:00,
2013-06-19 16:03:00,77.0,25.8,30.01,SSE,158,2.3,2.3,15,0.00,CLR,,0.00,WeatherDisplay:10.37,2013-06-19 20:03:00,
2013-06-19 16:05:00,77.5,26.2,30.01,ESE,112,0.0,0.0,15,0.00,CLR,,0.00,WeatherDisplay:10.37,2013-06-19 20:05:00,
2013-06-19 16:06:00,77.7,26.4,30.01,ESE,112,1.2,0.0,15,0.00,CLR,,0.00,WeatherDisplay:10.37,2013-06-19 20:06:00,
2013-06-19 16:07:00,77.5,26.2,30.01,SSE,158,0.0,0.0,15,0.00,CLR,,0.00,WeatherDisplay:10.37,2013-06-19 20:07:00,
2013-06-19 16:08:00,77.5,26.2,30.01,SSE,158,1.2,0.0,15,0.00,CLR,,0.00,WeatherDisplay:10.37,2013-06-19 20:08:00,
2013-06-19 16:10:00,77.7,26.4,30.01,ESE,112,2.3,2.3,15,0.00,CLR,,0.00,WeatherDisplay:10.37,2013-06-19 20:10:00,
2013-06-19 16:11:00,77.5,26.2,30.01,SSE,158,2.3,2.3,15,0.00,CLR,,0.00,WeatherDisplay:10.37,2013-06-19 20:11:00,
2013-06-19 16:12:00,77.2,25.9,30.01,ESE,112,3.1,0.0,15,0.00,CLR,,0.00,WeatherDisplay:10.37,2013-06-19 20:12:00,
2013-06-19 16:13:00,77.2,25.9,30.01,East,90,3.5,3.5,15,0.00,CLR,,0.00,WeatherDisplay:10.37,2013-06-19 20:13:00,
2013-06-19 16:15:00,76.6,25.5,30.01,ESE,112,3.5,3.5,15,0.00,CLR,,0.00,WeatherDisplay:10.37,2013-06-19 20:15:00,
2013-06-19 16:16:00,76.8,25.6,30.01,ESE,112,3.5,3.5,15,0.00,CLR,,0.00,WeatherDisplay:10.37,2013-06-19 20:16:00,
2013-06-19 16:18:00,76.6,25.5,30.01,ENE,68,2.3,2.3,15,0.00,CLR,,0.00,WeatherDisplay:10.37,2013-06-19 20:18:00,
2013-06-19 16:20:00,76.3,25.2,30.01,East,90,3.5,3.5,15,0.00,CLR,,0.00,WeatherDisplay:10.37,2013-06-19 20:20:00,
2013-06-19 16:21:00,75.9,24.9,30.01,ESE,112,2.3,2.3,15,0.00,CLR,,0.00,WeatherDisplay:10.37,2013-06-19 20:21:00,
2013-06-19 16:23:00,76.1,25.1,30.01,NNW,338,2.3,2.4,15,0.00,CLR,,0.00,WeatherDisplay:10.37,2013-06-19 20:23:00,
2013-06-19 16:25:00,76.5,25.3,30.01,ESE,112,1.2,1.2,15,0.00,CLR,,0.00,WeatherDisplay:10.37,2013-06-19 20:25:00,
2013-06-19 16:26:00,77.0,25.8,30.01,North,0,2.3,2.3,15,0.00,CLR,,0.00,WeatherDisplay:10.37,2013-06-19 20:26:00,
2013-06-19 16:28:00,76.6,25.5,30.01,NNE,22,2.3,2.3,15,0.00,CLR,,0.00,WeatherDisplay:10.37,2013-06-19 20:28:00,
2013-06-19 16:30:00,76.1,25.1,30.01,ESE,112,5.8,5.8,15,0.00,CLR,,0.00,WeatherDisplay:10.37,2013-06-19 20:30:00,
2013-06-19 16:31:00,76.5,25.3,30.01,ESE,112,2.3,2.3,15,0.00,CLR,,0.00,WeatherDisplay:10.37,2013-06-19 20:31:00,
2013-06-19 16:33:00,75.9,24.9,30.01,North,0,2.3,2.3,15,0.00,CLR,,0.00,WeatherDisplay:10.37,2013-06-19 20:33:00,
2013-06-19 16:35:00,76.8,25.6,30.01,ESE,112,1.2,0.0,15,0.00,CLR,,0.00,WeatherDisplay:10.37,2013-06-19 20:35:00,
2013-06-19 16:36:00,76.8,25.6,30.01,ESE,112,0.0,0.0,15,0.00,CLR,,0.00,WeatherDisplay:10.37,2013-06-19 20:36:00,
2013-06-19 16:39:00,76.5,25.3,30.01,NE,45,4.6,4.6,15,0.00,CLR,,0.00,WeatherDisplay:10.37,2013-06-19 20:39:00,
2013-06-19 16:40:00,76.3,25.2,30.01,ENE,68,3.5,3.5,15,0.00,CLR,,0.00,WeatherDisplay:10.37,2013-06-19 20:40:00,
2013-06-19 16:41:00,76.3,25.2,30.01,NE,45,3.6,3.6,15,0.00,CLR,,0.00,WeatherDisplay:10.37,2013-06-19 20:41:00,
2013-06-19 16:42:00,76.3,25.2,30.01,East,90,3.5,3.5,15,0.00,CLR,,0.00,WeatherDisplay:10.37,2013-06-19 20:42:00,
2013-06-19 16:44:00,76.6,25.5,30.01,ESE,112,0.0,0.0,15,0.00,CLR,,0.00,WeatherDisplay:10.37,2013-06-19 20:44:00,
2013-06-19 16:45:00,76.5,25.3,30.01,ESE,112,1.6,1.6,15,0.00,CLR,,0.00,WeatherDisplay:10.37,2013-06-19 20:45:00,
2013-06-19 16:46:00,76.5,25.3,30.01,ESE,112,2.3,2.3,15,0.00,CLR,,0.00,WeatherDisplay:10.37,2013-06-19 20:46:00,
2013-06-19 16:47:00,76.6,25.5,30.01,ESE,112,2.3,2.3,15,0.00,CLR,,0.00,WeatherDisplay:10.37,2013-06-19 20:47:00,
2013-06-19 16:49:00,76.6,25.5,30.01,North,0,3.8,0.0,15,0.00,CLR,,0.00,WeatherDisplay:10.37,2013-06-19 20:49:00,
2013-06-19 16:50:00,76.5,25.3,30.01,NNW,338,3.5,3.5,15,0.00,CLR,,0.00,WeatherDisplay:10.37,2013-06-19 20:50:00,
2013-06-19 16:51:00,76.6,25.5,30.01,NNE,22,1.2,1.2,15,0.00,CLR,,0.00,WeatherDisplay:10.37,2013-06-19 20:51:00,
2013-06-19 16:52:00,77.0,25.8,30.01,ESE,112,1.2,0.0,15,0.00,CLR,,0.00,WeatherDisplay:10.37,2013-06-19 20:52:00,
2013-06-19 16:54:00,77.4,26.1,30.01,ESE,112,0.0,0.0,15,0.00,CLR,,0.00,WeatherDisplay:10.37,2013-06-19 20:54:00,
2013-06-19 16:56:00,77.4,26.1,30.01,North,0,2.3,2.3,15,0.00,CLR,,0.00,WeatherDisplay:10.37,2013-06-19 20:56:00,
2013-06-19 16:57:00,77.4,26.1,30.01,ESE,112,3.5,3.5,15,0.00,CLR,,0.00,WeatherDisplay:10.37,2013-06-19 20:57:00,
2013-06-19 16:59:00,76.8,25.6,30.01,ESE,112,1.2,0.0,15,0.00,CLR,,0.00,WeatherDisplay:10.37,2013-06-19 20:59:00,
2013-06-19 17:01:00,76.1,25.1,30.01,SE,135,0.0,0.0,15,0.00,CLR,,0.00,WeatherDisplay:10.37,2013-06-19 21:01:00,
2013-06-19 17:02:00,76.1,25.1,30.01,NE,45,0.0,0.0,15,0.00,CLR,,0.00,WeatherDisplay:10.37,2013-06-19 21:02:00,
2013-06-19 17:04:00,76.8,25.6,30.01,East,90,0.0,0.0,15,0.00,CLR,,0.00,WeatherDisplay:10.37,2013-06-19 21:04:00,
2013-06-19 17:06:00,77.4,26.1,30.01,NE,45,2.3,0.0,15,0.00,CLR,,0.00,WeatherDisplay:10.37,2013-06-19 21:06:00,
2013-06-19 17:07:00,77.2,25.9,30.01,ENE,68,0.0,0.0,15,0.00,CLR,,0.00,WeatherDisplay:10.37,2013-06-19 21:07:00,
2013-06-19 17:09:00,77.9,26.5,30.01,SSE,158,0.0,0.0,15,0.00,CLR,,0.00,WeatherDisplay:10.37,2013-06-19 21:09:00,
2013-06-19 17:11:00,77.4,26.1,30.01,ESE,112,4.6,4.6,15,0.00,CLR,,0.00,WeatherDisplay:10.37,2013-06-19 21:11:00,
2013-06-19 17:12:00,77.4,26.1,30.01,SSE,158,4.6,4.6,15,0.00,CLR,,0.00,WeatherDisplay:10.37,2013-06-19 21:12:00,
2013-06-19 17:13:00,76.8,25.6,30.01,East,90,2.3,2.3,15,0.00,CLR,,0.00,WeatherDisplay:10.37,2013-06-19 21:13:00,
2013-06-19 17:15:00,76.8,25.6,30.01,WSW,248,3.5,3.5,15,0.00,CLR,,0.00,WeatherDisplay:10.37,2013-06-19 21:15:00,
2013-06-19 17:16:00,76.8,25.6,30.01,SE,135,0.0,0.0,15,0.00,CLR,,0.00,WeatherDisplay:10.37,2013-06-19 21:16:00,
2013-06-19 17:17:00,76.5,25.3,30.01,ESE,112,0.0,0.0,15,0.00,CLR,,0.00,WeatherDisplay:10.37,2013-06-19 21:17:00,
2013-06-19 17:18:00,76.3,25.2,30.01,East,90,0.0,0.0,15,0.00,CLR,,0.00,WeatherDisplay:10.37,2013-06-19 21:18:00,
2013-06-19 17:20:00,76.3,25.2,30.01,SE,135,2.3,0.0,15,0.00,CLR,,0.00,WeatherDisplay:10.37,2013-06-19 21:20:00,
2013-06-19 17:21:00,76.3,25.2,30.01,East,90,0.0,0.0,15,0.00,CLR,,0.00,WeatherDisplay:10.37,2013-06-19 21:21:00,
2013-06-19 17:22:00,76.3,25.2,30.01,East,90,0.0,0.0,15,0.00,CLR,,0.00,WeatherDisplay:10.37,2013-06-19 21:22:00,
2013-06-19 17:23:00,76.6,25.5,30.01,ESE,112,0.0,0.0,15,0.00,CLR,,0.00,WeatherDisplay:10.37,2013-06-19 21:23:00,
2013-06-19 17:25:00,76.8,25.6,30.01,East,90,0.0,0.0,15,0.00,CLR,,0.00,WeatherDisplay:10.37,2013-06-19 21:25:00,
2013-06-19 17:27:00,76.8,25.6,30.01,ESE,112,0.0,0.0,15,0.00,CLR,,0.00,WeatherDisplay:10.37,2013-06-19 21:27:00,
2013-06-19 17:28:00,76.5,25.3,30.01,SE,135,1.2,0.0,15,0.00,CLR,,0.00,WeatherDisplay:10.37,2013-06-19 21:28:00,
2013-06-19 17:30:00,76.3,25.2,30.01,SSW,202,2.3,2.3,15,0.00,CLR,,0.00,WeatherDisplay:10.37,2013-06-19 21:30:00,
2013-06-19 17:32:00,76.5,25.3,30.01,SSE,158,0.0,0.0,15,0.00,CLR,,0.00,WeatherDisplay:10.37,2013-06-19 21:32:00,
2013-06-19 17:33:00,76.6,25.5,30.01,ESE,112,3.5,0.0,15,0.00,CLR,,0.00,WeatherDisplay:10.37,2013-06-19 21:33:00,
2013-06-19 17:35:00,76.1,25.1,30.01,ESE,112,0.0,0.0,15,0.00,CLR,,0.00,WeatherDisplay:10.37,2013-06-19 21:35:00,
2013-06-19 17:37:00,75.9,24.9,30.01,ESE,112,0.0,0.0,15,0.00,CLR,,0.00,WeatherDisplay:10.37,2013-06-19 21:37:00,
2013-06-19 17:39:00,75.7,24.8,30.01,SSE,158,0.0,0.0,15,0.00,CLR,,0.00,WeatherDisplay:10.37,2013-06-19 21:39:00,
2013-06-19 17:41:00,75.7,24.8,30.01,SSE,158,0.0,0.0,15,0.00,CLR,,0.00,WeatherDisplay:10.37,2013-06-19 21:41:00,
2013-06-19 17:42:00,75.7,24.8,30.01,SSE,158,0.0,0.0,15,0.00,CLR,,0.00,WeatherDisplay:10.37,2013-06-19 21:42:00,
2013-06-19 17:43:00,75.2,24.3,30.01,SE,135,0.0,0.0,15,0.00,CLR,,0.00,WeatherDisplay:10.37,2013-06-19 21:43:00,
2013-06-19 17:44:00,75.7,24.8,30.01,ESE,112,0.0,0.0,15,0.00,CLR,,0.00,WeatherDisplay:10.37,2013-06-19 21:44:00,
2013-06-19 17:46:00,75.7,24.8,30.01,ESE,112,0.0,0.0,15,0.00,CLR,,0.00,WeatherDisplay:10.37,2013-06-19 21:46:00,
2013-06-19 17:47:00,75.4,24.5,30.01,ENE,68,0.0,0.0,15,0.00,CLR,,0.00,WeatherDisplay:10.37,2013-06-19 21:47:00,
2013-06-19 17:48:00,75.0,25.7,30.01,ESE,112,0.0,0.0,16,0.00,CLR,,0.00,WeatherDisplay:10.37,2013-06-19 21:48:00,
2013-06-19 17:49:00,75.0,25.7,30.01,East,90,3.6,3.6,16,0.00,CLR,,0.00,WeatherDisplay:10.37,2013-06-19 21:49:00,
2013-06-19 17:51:00,74.8,25.6,30.01,NE,45,1.2,1.2,16,0.00,CLR,,0.00,WeatherDisplay:10.37,2013-06-19 21:51:00,
2013-06-19 17:52:00,75.2,24.3,30.01,NE,45,2.3,2.3,15,0.00,CLR,,0.00,WeatherDisplay:10.37,2013-06-19 21:52:00,
2013-06-19 17:53:00,75.4,24.5,30.01,SE,135,1.2,0.0,15,0.00,CLR,,0.00,WeatherDisplay:10.37,2013-06-19 21:53:00,
2013-06-19 17:54:00,75.7,24.8,30.01,SE,135,1.2,0.0,15,0.00,CLR,,0.00,WeatherDisplay:10.37,2013-06-19 21:54:00,
2013-06-19 17:56:00,75.2,24.3,30.01,SE,135,0.0,0.0,15,0.00,CLR,,0.00,WeatherDisplay:10.37,2013-06-19 21:56:00,
2013-06-19 17:57:00,75.2,24.3,30.01,ESE,112,3.5,3.5,15,0.00,CLR,,0.00,WeatherDisplay:10.37,2013-06-19 21:57:00,
2013-06-19 17:58:00,75.2,24.3,30.01,ESE,112,3.5,3.5,15,0.00,CLR,,0.00,WeatherDisplay:10.37,2013-06-19 21:58:00,
2013-06-19 17:59:00,74.5,25.3,30.01,SSE,158,2.3,0.0,16,0.00,CLR,,0.00,WeatherDisplay:10.37,2013-06-19 21:59:00,
2013-06-19 18:01:00,74.5,25.3,30.01,ESE,112,2.9,2.9,16,0.00,CLR,,0.00,WeatherDisplay:10.37,2013-06-19 22:01:00,
2013-06-19 18:02:00,74.1,25.0,30.01,ESE,112,2.3,2.3,16,0.00,CLR,,0.00,WeatherDisplay:10.37,2013-06-19 22:02:00,
2013-06-19 18:03:00,73.9,24.9,30.01,SE,135,3.5,3.5,16,0.00,CLR,,0.00,WeatherDisplay:10.37,2013-06-19 22:03:00,
2013-06-19 18:04:00,73.8,24.7,30.01,ESE,112,4.6,4.6,16,0.00,CLR,,0.00,WeatherDisplay:10.37,2013-06-19 22:04:00,
2013-06-19 18:06:00,74.3,25.2,30.01,ESE,112,0.0,0.0,16,0.00,CLR,,0.00,WeatherDisplay:10.37,2013-06-19 22:06:00,
2013-06-19 18:07:00,74.1,25.0,30.01,ESE,112,0.0,0.0,16,0.00,CLR,,0.00,WeatherDisplay:10.37,2013-06-19 22:07:00,
2013-06-19 18:08:00,74.5,25.3,30.01,ESE,112,0.0,0.0,16,0.00,CLR,,0.00,WeatherDisplay:10.37,2013-06-19 22:08:00,
2013-06-19 18:09:00,74.5,25.3,30.01,ESE,112,0.0,0.0,16,0.00,CLR,,0.00,WeatherDisplay:10.37,2013-06-19 22:09:00,
2013-06-19 18:11:00,74.3,25.2,30.01,ESE,112,1.2,0.0,16,0.00,CLR,,0.00,WeatherDisplay:10.37,2013-06-19 22:11:00,
2013-06-19 18:12:00,74.3,25.2,30.01,ESE,112,0.0,0.0,16,0.00,CLR,,0.00,WeatherDisplay:10.37,2013-06-19 22:12:00,
2013-06-19 18:13:00,74.7,25.5,30.01,ESE,112,1.2,0.0,16,0.00,CLR,,0.00,WeatherDisplay:10.37,2013-06-19 22:13:00,
2013-06-19 18:14:00,74.7,25.5,30.01,ESE,112,1.2,0.0,16,0.00,CLR,,0.00,WeatherDisplay:10.37,2013-06-19 22:14:00,
2013-06-19 18:15:00,74.5,25.3,30.01,ESE,112,0.0,0.0,16,0.00,CLR,,0.00,WeatherDisplay:10.37,2013-06-19 22:15:00,
2013-06-19 18:16:00,74.1,25.0,30.01,ENE,68,3.3,0.0,16,0.00,CLR,,0.00,WeatherDisplay:10.37,2013-06-19 22:16:00,
2013-06-19 18:18:00,74.1,25.0,30.01,East,90,3.5,3.5,16,0.00,CLR,,0.00,WeatherDisplay:10.37,2013-06-19 22:18:00,
2013-06-19 18:19:00,74.1,25.0,30.01,ENE,68,0.0,0.0,16,0.00,CLR,,0.00,WeatherDisplay:10.37,2013-06-19 22:19:00,
2013-06-19 18:20:00,74.1,25.0,30.01,ESE,112,0.0,0.0,16,0.00,CLR,,0.00,WeatherDisplay:10.37,2013-06-19 22:20:00,
2013-06-19 18:22:00,74.1,25.0,30.01,ESE,112,1.2,0.0,16,0.00,CLR,,0.00,WeatherDisplay:10.37,2013-06-19 22:22:00,
2013-06-19 18:23:00,74.3,25.2,30.01,ENE,68,1.2,0.0,16,0.00,CLR,,0.00,WeatherDisplay:10.37,2013-06-19 22:23:00,
2013-06-19 18:24:00,74.7,25.5,30.01,ESE,112,0.0,0.0,16,0.00,CLR,,0.00,WeatherDisplay:10.37,2013-06-19 22:24:00,
2013-06-19 18:25:00,74.5,25.3,30.01,ESE,112,0.0,0.0,16,0.00,CLR,,0.00,WeatherDisplay:10.37,2013-06-19 22:25:00,
2013-06-19 18:27:00,73.6,24.6,30.01,ESE,112,2.4,0.0,16,0.00,CLR,,0.00,WeatherDisplay:10.37,2013-06-19 22:27:00,
2013-06-19 18:28:00,73.6,24.6,30.01,SE,135,3.5,3.5,16,0.00,CLR,,0.00,WeatherDisplay:10.37,2013-06-19 22:28:00,
2013-06-19 18:29:00,73.2,24.3,30.01,SE,135,3.5,3.5,16,0.00,CLR,,0.00,WeatherDisplay:10.37,2013-06-19 22:29:00,
2013-06-19 18:30:00,73.4,24.4,30.01,SE,135,0.0,1.4,16,0.00,CLR,,0.00,WeatherDisplay:10.37,2013-06-19 22:30:00,
2013-06-19 18:32:00,73.2,24.3,30.01,ESE,112,2.3,2.3,16,0.00,CLR,,0.00,WeatherDisplay:10.37,2013-06-19 22:32:00,
2013-06-19 18:33:00,72.9,24.0,30.01,ESE,112,3.5,3.5,16,0.00,CLR,,0.00,WeatherDisplay:10.37,2013-06-19 22:33:00,
2013-06-19 18:35:00,72.3,23.6,30.01,ESE,112,2.3,2.6,16,0.00,CLR,,0.00,WeatherDisplay:10.37,2013-06-19 22:35:00,
2013-06-19 18:37:00,72.1,23.4,30.01,SE,135,0.9,0.0,16,0.00,CLR,,0.00,WeatherDisplay:10.37,2013-06-19 22:37:00,
2013-06-19 18:38:00,72.3,23.6,30.01,SSE,158,1.2,0.0,16,0.00,CLR,,0.00,WeatherDisplay:10.37,2013-06-19 22:38:00,
2013-06-19 18:40:00,72.3,23.6,30.01,SE,135,0.0,0.0,16,0.00,CLR,,0.00,WeatherDisplay:10.37,2013-06-19 22:40:00,
2013-06-19 18:42:00,72.9,28.2,30.01,SE,135,0.0,0.0,19,0.00,CLR,,0.00,WeatherDisplay:10.37,2013-06-19 22:42:00,
2013-06-19 18:43:00,72.7,23.9,30.01,SE,135,0.0,0.0,16,0.00,CLR,,0.00,WeatherDisplay:10.37,2013-06-19 22:43:00,
2013-06-19 18:45:00,73.0,24.2,30.01,SE,135,0.0,0.0,16,0.00,CLR,,0.00,WeatherDisplay:10.37,2013-06-19 22:45:00,
2013-06-19 18:48:00,73.0,24.2,30.01,East,90,0.0,0.0,16,0.00,CLR,,0.00,WeatherDisplay:10.37,2013-06-19 22:48:00,
2013-06-19 18:49:00,73.0,24.2,30.01,East,90,0.0,0.0,16,0.00,CLR,,0.00,WeatherDisplay:10.37,2013-06-19 22:49:00,
2013-06-19 18:50:00,73.0,24.2,30.01,North,0,0.0,0.0,16,0.00,CLR,,0.00,WeatherDisplay:10.37,2013-06-19 22:50:00,
2013-06-19 18:51:00,73.0,24.2,30.01,SE,135,0.9,0.0,16,0.00,CLR,,0.00,WeatherDisplay:10.37,2013-06-19 22:51:00,
2013-06-19 18:54:00,72.5,23.7,30.01,SE,135,0.0,0.0,16,0.00,CLR,,0.00,WeatherDisplay:10.37,2013-06-19 22:54:00,
2013-06-19 18:55:00,72.5,27.9,30.01,SE,135,0.0,0.0,19,0.00,CLR,,0.00,WeatherDisplay:10.37,2013-06-19 22:55:00,
2013-06-19 18:56:00,72.7,28.0,30.01,SE,135,0.0,0.0,19,0.00,CLR,,0.00,WeatherDisplay:10.37,2013-06-19 22:56:00,
2013-06-19 18:59:00,72.1,23.4,30.01,ESE,112,1.2,0.0,16,0.00,CLR,,0.00,WeatherDisplay:10.37,2013-06-19 22:59:00,
2013-06-19 19:00:00,72.0,23.3,30.01,ESE,112,0.0,0.0,16,0.00,CLR,,0.00,WeatherDisplay:10.37,2013-06-19 23:00:00,
2013-06-19 19:01:00,71.4,24.3,30.01,ESE,112,0.0,0.0,17,0.00,CLR,,0.00,WeatherDisplay:10.37,2013-06-19 23:01:00,
2013-06-19 19:04:00,71.4,24.3,30.01,ESE,112,0.0,0.0,17,0.00,CLR,,0.00,WeatherDisplay:10.37,2013-06-19 23:04:00,
2013-06-19 19:05:00,71.2,24.1,30.01,East,90,0.0,0.0,17,0.00,CLR,,0.00,WeatherDisplay:10.37,2013-06-19 23:05:00,
2013-06-19 19:06:00,71.1,24.0,30.01,ESE,112,0.0,0.0,17,0.00,CLR,,0.00,WeatherDisplay:10.37,2013-06-19 23:06:00,
2013-06-19 19:09:00,70.9,26.5,30.01,SE,135,0.0,0.0,19,0.00,CLR,,0.00,WeatherDisplay:10.37,2013-06-19 23:09:00,
2013-06-19 19:10:00,70.7,23.7,30.01,SE,135,0.0,0.0,17,0.00,CLR,,0.00,WeatherDisplay:10.37,2013-06-19 23:10:00,
2013-06-19 19:11:00,70.9,26.5,30.01,SE,135,0.0,0.0,19,0.00,CLR,,0.00,WeatherDisplay:10.37,2013-06-19 23:11:00,
2013-06-19 19:12:00,70.9,26.5,30.01,SE,135,0.0,0.0,19,0.00,CLR,,0.00,WeatherDisplay:10.37,2013-06-19 23:12:00,
2013-06-19 19:14:00,70.7,26.4,30.01,East,90,0.0,0.0,19,0.00,CLR,,0.00,WeatherDisplay:10.37,2013-06-19 23:14:00,
2013-06-19 19:15:00,70.7,26.4,30.01,SE,135,0.0,0.0,19,0.00,CLR,,0.00,WeatherDisplay:10.37,2013-06-19 23:15:00,
2013-06-19 19:16:00,70.3,26.1,30.01,ESE,112,0.0,0.0,19,0.00,CLR,,0.00,WeatherDisplay:10.37,2013-06-19 23:16:00,
2013-06-19 19:17:00,70.0,25.8,30.01,ESE,112,0.0,0.0,19,0.00,CLR,,0.00,WeatherDisplay:10.37,2013-06-19 23:17:00,
2013-06-19 19:19:00,69.4,22.7,30.01,ESE,112,0.0,0.0,17,0.00,CLR,,0.00,WeatherDisplay:10.37,2013-06-19 23:19:00,
2013-06-19 19:20:00,69.6,26.7,30.01,ESE,112,0.0,0.0,20,0.00,CLR,,0.00,WeatherDisplay:10.37,2013-06-19 23:20:00,
2013-06-19 19:21:00,69.8,25.6,30.01,ESE,112,0.0,0.0,19,0.00,CLR,,0.00,WeatherDisplay:10.37,2013-06-19 23:21:00,
2013-06-19 19:22:00,69.6,22.8,30.01,ESE,112,0.0,0.0,17,0.00,CLR,,0.00,WeatherDisplay:10.37,2013-06-19 23:22:00,
2013-06-19 19:24:00,69.8,25.6,30.01,ENE,68,0.0,0.0,19,0.00,CLR,,0.00,WeatherDisplay:10.37,2013-06-19 23:24:00,
2013-06-19 19:26:00,69.8,25.6,30.01,ENE,68,0.0,0.0,19,0.00,CLR,,0.00,WeatherDisplay:10.37,2013-06-19 23:26:00,
2013-06-19 19:27:00,69.6,26.7,30.01,ESE,112,0.0,0.0,20,0.00,CLR,,0.00,WeatherDisplay:10.37,2013-06-19 23:27:00,
2013-06-19 19:30:00,69.3,26.4,30.01,ESE,112,0.0,0.0,20,0.00,CLR,,0.00,WeatherDisplay:10.37,2013-06-19 23:30:00,
2013-06-19 19:31:00,69.1,26.3,30.01,ESE,112,0.0,0.0,20,0.00,CLR,,0.00,WeatherDisplay:10.37,2013-06-19 23:31:00,
2013-06-19 19:33:00,68.9,28.5,30.01,ESE,112,0.0,0.0,22,0.00,CLR,,0.00,WeatherDisplay:10.37,2013-06-19 23:33:00,
2013-06-19 19:35:00,68.7,28.3,30.01,ESE,112,0.0,0.0,22,0.00,CLR,,0.00,WeatherDisplay:10.37,2013-06-19 23:35:00,
2013-06-19 19:36:00,68.4,28.0,30.01,ESE,112,0.0,0.0,22,0.00,CLR,,0.00,WeatherDisplay:10.37,2013-06-19 23:36:00,
2013-06-19 19:38:00,67.8,25.2,30.01,ESE,112,0.0,0.0,20,0.00,CLR,,0.00,WeatherDisplay:10.37,2013-06-19 23:38:00,
2013-06-19 19:40:00,67.1,26.9,30.01,ESE,112,0.0,0.0,22,0.00,CLR,,0.00,WeatherDisplay:10.37,2013-06-19 23:40:00,
2013-06-19 19:41:00,66.9,24.5,30.01,ESE,112,0.0,0.0,20,0.00,CLR,,0.00,WeatherDisplay:10.37,2013-06-19 23:41:00,
2013-06-19 19:43:00,66.7,26.6,30.01,ESE,112,0.0,0.0,22,0.00,CLR,,0.00,WeatherDisplay:10.37,2013-06-19 23:43:00,
2013-06-19 19:46:00,66.0,27.1,30.01,ESE,112,0.0,0.0,23,0.00,CLR,,0.00,WeatherDisplay:10.37,2013-06-19 23:46:00,
2013-06-19 19:48:00,65.7,26.8,30.01,ENE,68,0.0,0.0,23,0.00,CLR,,0.00,WeatherDisplay:10.37,2013-06-19 23:48:00,
2013-06-19 19:51:00,65.5,26.7,30.01,ENE,68,0.0,0.0,23,0.00,CLR,,0.00,WeatherDisplay:10.37,2013-06-19 23:51:00,
2013-06-19 19:52:00,65.3,26.5,30.01,ESE,112,0.0,0.0,23,0.00,CLR,,0.00,WeatherDisplay:10.37,2013-06-19 23:52:00,
2013-06-19 19:53:00,64.8,26.1,30.01,ESE,112,0.0,0.0,23,0.00,CLR,,0.00,WeatherDisplay:10.37,2013-06-19 23:53:00,
2013-06-19 19:54:00,64.8,26.1,30.01,ESE,112,0.0,0.0,23,0.00,CLR,,0.00,WeatherDisplay:10.37,2013-06-19 23:54:00,
2013-06-19 19:56:00,64.4,25.8,30.01,ESE,112,0.0,0.0,23,0.00,CLR,,0.00,WeatherDisplay:10.37,2013-06-19 23:56:00,
2013-06-19 19:57:00,64.4,25.8,30.01,ESE,112,0.0,0.0,23,0.00,CLR,,0.00,WeatherDisplay:10.37,2013-06-19 23:57:00,
2013-06-19 19:59:00,64.2,26.6,30.04,ESE,112,0.0,0.0,24,0.00,CLR,,0.00,WeatherDisplay:10.37,2013-06-19 23:59:00,
2013-06-19 20:01:00,63.9,26.3,30.04,SE,135,0.0,0.0,24,0.00,CLR,,0.00,WeatherDisplay:10.37,2013-06-20 00:01:00,
2013-06-19 20:02:00,63.9,26.3,30.04,SE,135,0.0,0.0,24,0.00,CLR,,0.00,WeatherDisplay:10.37,2013-06-20 00:02:00,
2013-06-19 20:04:00,63.7,26.2,30.04,SE,135,0.0,0.0,24,0.00,CLR,,0.00,WeatherDisplay:10.37,2013-06-20 00:04:00,
2013-06-19 20:06:00,63.3,25.9,30.04,SE,135,0.0,0.0,24,0.00,CLR,,0.00,WeatherDisplay:10.37,2013-06-20 00:06:00,
2013-06-19 20:07:00,63.3,25.9,30.04,SE,135,0.0,0.0,24,0.00,CLR,,0.00,WeatherDisplay:10.37,2013-06-20 00:07:00,
2013-06-19 20:09:00,63.1,32.0,30.04,SE,135,0.0,0.0,31,0.00,CLR,,0.00,WeatherDisplay:10.37,2013-06-20 00:09:00,
2013-06-19 20:10:00,63.1,32.8,30.04,SE,135,0.0,0.0,32,0.00,CLR,,0.00,WeatherDisplay:10.37,2013-06-20 00:10:00,
2013-06-19 20:12:00,63.0,30.2,30.04,SE,135,0.0,0.0,29,0.00,CLR,,0.00,WeatherDisplay:10.37,2013-06-20 00:12:00,
2013-06-19 20:13:00,63.0,31.0,30.01,ESE,112,0.0,0.0,30,0.00,CLR,,0.00,WeatherDisplay:10.37,2013-06-20 00:13:00,
2013-06-19 20:14:00,63.0,29.3,30.01,ESE,112,2.3,2.3,28,0.00,CLR,,0.00,WeatherDisplay:10.37,2013-06-20 00:14:00,
2013-06-19 20:15:00,62.8,29.2,30.01,ESE,112,1.2,0.0,28,0.00,CLR,,0.00,WeatherDisplay:10.37,2013-06-20 00:15:00,
2013-06-19 20:17:00,62.6,31.5,30.01,ESE,112,0.0,0.0,31,0.00,CLR,,0.00,WeatherDisplay:10.37,2013-06-20 00:17:00,
2013-06-19 20:18:00,62.6,29.9,30.01,ESE,112,0.0,0.0,29,0.00,CLR,,0.00,WeatherDisplay:10.37,2013-06-20 00:18:00,
2013-06-19 20:19:00,62.6,29.9,30.01,ESE,112,0.0,0.0,29,0.00,CLR,,0.00,WeatherDisplay:10.37,2013-06-20 00:19:00,
2013-06-19 20:22:00,62.4,29.7,30.01,ESE,112,0.0,0.0,29,0.00,CLR,,0.00,WeatherDisplay:10.37,2013-06-20 00:22:00,
2013-06-19 20:23:00,62.1,29.4,30.01,ESE,112,0.0,0.0,29,0.00,CLR,,0.00,WeatherDisplay:10.37,2013-06-20 00:23:00,
2013-06-19 20:24:00,61.9,29.2,30.01,ESE,112,0.0,0.0,29,0.00,CLR,,0.00,WeatherDisplay:10.37,2013-06-20 00:24:00,
2013-06-19 20:27:00,61.7,29.1,30.01,ESE,112,0.0,0.0,29,0.00,CLR,,0.00,WeatherDisplay:10.37,2013-06-20 00:27:00,
2013-06-19 20:28:00,61.7,29.1,30.04,ESE,112,0.0,0.0,29,0.00,CLR,,0.00,WeatherDisplay:10.37,2013-06-20 00:28:00,
2013-06-19 20:29:00,61.3,28.8,30.04,ESE,112,0.0,0.0,29,0.00,CLR,,0.00,WeatherDisplay:10.37,2013-06-20 00:29:00,
2013-06-19 20:33:00,61.0,28.5,30.04,ESE,112,0.0,0.0,29,0.00,CLR,,0.00,WeatherDisplay:10.37,2013-06-20 00:33:00,
2013-06-19 20:34:00,61.0,29.3,30.04,ESE,112,0.0,0.0,30,0.00,CLR,,0.00,WeatherDisplay:10.37,2013-06-20 00:34:00,
2013-06-19 20:35:00,60.6,29.0,30.04,ESE,112,0.0,0.0,30,0.00,CLR,,0.00,WeatherDisplay:10.37,2013-06-20 00:35:00,
2013-06-19 20:38:00,60.6,29.8,30.04,ESE,112,0.0,0.0,31,0.00,CLR,,0.00,WeatherDisplay:10.37,2013-06-20 00:38:00,
2013-06-19 20:40:00,60.3,29.5,30.04,ESE,112,0.0,0.0,31,0.00,CLR,,0.00,WeatherDisplay:10.37,2013-06-20 00:40:00,
2013-06-19 20:43:00,60.1,30.1,30.01,ESE,112,0.0,0.0,32,0.00,CLR,,0.00,WeatherDisplay:10.37,2013-06-20 00:43:00,
2013-06-19 20:44:00,60.1,30.1,30.01,ESE,112,0.0,0.0,32,0.00,CLR,,0.00,WeatherDisplay:10.37,2013-06-20 00:44:00,
2013-06-19 20:45:00,59.9,29.9,30.01,ESE,112,0.0,0.0,32,0.00,CLR,,0.00,WeatherDisplay:10.37,2013-06-20 00:45:00,
2013-06-19 20:48:00,59.5,30.4,30.01,ESE,112,0.0,0.0,33,0.00,CLR,,0.00,WeatherDisplay:10.37,2013-06-20 00:48:00,
2013-06-19 20:49:00,59.5,31.1,30.01,ESE,112,0.0,0.0,34,0.00,CLR,,0.00,WeatherDisplay:10.37,2013-06-20 00:49:00,
2013-06-19 20:50:00,59.4,31.0,30.01,ESE,112,0.0,0.0,34,0.00,CLR,,0.00,WeatherDisplay:10.37,2013-06-20 00:50:00,
2013-06-19 20:53:00,59.0,30.6,30.01,ESE,112,0.0,0.0,34,0.00,CLR,,0.00,WeatherDisplay:10.37,2013-06-20 00:53:00,
2013-06-19 20:54:00,59.0,30.6,30.01,ESE,112,0.0,0.0,34,0.00,CLR,,0.00,WeatherDisplay:10.37,2013-06-20 00:54:00,
2013-06-19 20:55:00,58.8,31.2,30.01,ESE,112,0.0,0.0,35,0.00,CLR,,0.00,WeatherDisplay:10.37,2013-06-20 00:55:00,
2013-06-19 20:58:00,58.6,31.0,30.01,ESE,112,0.0,0.0,35,0.00,CLR,,0.00,WeatherDisplay:10.37,2013-06-20 00:58:00,
2013-06-19 21:00:00,58.5,30.9,30.01,ESE,112,0.0,0.0,35,0.00,CLR,,0.00,WeatherDisplay:10.37,2013-06-20 01:00:00,
2013-06-19 21:01:00,58.3,30.7,30.01,ESE,112,0.0,0.0,35,0.00,CLR,,0.00,WeatherDisplay:10.37,2013-06-20 01:01:00,
2013-06-19 21:04:00,58.3,30.7,30.01,ESE,112,0.0,0.0,35,0.00,CLR,,0.00,WeatherDisplay:10.37,2013-06-20 01:04:00,
2013-06-19 21:05:00,58.1,30.6,30.01,ESE,112,0.0,0.0,35,0.00,CLR,,0.00,WeatherDisplay:10.37,2013-06-20 01:05:00,
2013-06-19 21:06:00,58.1,30.6,30.01,ESE,112,0.0,0.0,35,0.00,CLR,,0.00,WeatherDisplay:10.37,2013-06-20 01:06:00,
2013-06-19 21:09:00,58.1,30.6,30.01,ESE,112,0.0,0.0,35,0.00,CLR,,0.00,WeatherDisplay:10.37,2013-06-20 01:09:00,
2013-06-19 21:10:00,58.1,30.6,30.01,ESE,112,0.0,0.0,35,0.00,CLR,,0.00,WeatherDisplay:10.37,2013-06-20 01:10:00,
2013-06-19 21:11:00,58.1,30.6,30.01,ESE,112,0.0,0.0,35,0.00,CLR,,0.00,WeatherDisplay:10.37,2013-06-20 01:11:00,
2013-06-19 21:12:00,58.1,30.6,30.01,ESE,112,0.0,0.0,35,0.00,CLR,,0.00,WeatherDisplay:10.37,2013-06-20 01:12:00,
2013-06-19 21:14:00,58.1,31.3,30.04,ESE,112,0.0,0.0,36,0.00,CLR,,0.00,WeatherDisplay:10.37,2013-06-20 01:14:00,
2013-06-19 21:15:00,57.9,31.1,30.04,ESE,112,0.0,0.0,36,0.00,CLR,,0.00,WeatherDisplay:10.37,2013-06-20 01:15:00,
2013-06-19 21:16:00,57.9,31.1,30.04,ESE,112,0.0,0.0,36,0.00,CLR,,0.00,WeatherDisplay:10.37,2013-06-20 01:16:00,
2013-06-19 21:17:00,57.7,30.9,30.04,ESE,112,0.0,0.0,36,0.00,CLR,,0.00,WeatherDisplay:10.37,2013-06-20 01:17:00,
2013-06-19 21:19:00,57.6,30.8,30.04,ESE,112,0.0,0.0,36,0.00,CLR,,0.00,WeatherDisplay:10.37,2013-06-20 01:19:00,
2013-06-19 21:20:00,57.6,30.8,30.04,ESE,112,0.0,0.0,36,0.00,CLR,,0.00,WeatherDisplay:10.37,2013-06-20 01:20:00,
2013-06-19 21:21:00,57.4,30.6,30.04,ESE,112,0.0,0.0,36,0.00,CLR,,0.00,WeatherDisplay:10.37,2013-06-20 01:21:00,
2013-06-19 21:22:00,57.2,30.5,30.04,ESE,112,0.0,0.0,36,0.00,CLR,,0.00,WeatherDisplay:10.37,2013-06-20 01:22:00,
2013-06-19 21:24:00,57.2,30.5,30.04,ESE,112,0.0,0.0,36,0.00,CLR,,0.00,WeatherDisplay:10.37,2013-06-20 01:24:00,
2013-06-19 21:25:00,57.0,30.3,30.04,ESE,112,0.0,0.0,36,0.00,CLR,,0.00,WeatherDisplay:10.37,2013-06-20 01:25:00,
2013-06-19 21:27:00,56.8,30.8,30.04,ESE,112,0.0,0.0,37,0.00,CLR,,0.00,WeatherDisplay:10.37,2013-06-20 01:27:00,
2013-06-19 21:29:00,56.8,30.8,30.04,ESE,112,0.0,0.0,37,0.00,CLR,,0.00,WeatherDisplay:10.37,2013-06-20 01:29:00,
2013-06-19 21:30:00,56.7,30.7,30.04,ESE,112,0.0,0.0,37,0.00,CLR,,0.00,WeatherDisplay:10.37,2013-06-20 01:30:00,
2013-06-19 21:32:00,56.7,31.3,30.04,ESE,112,0.0,0.0,38,0.00,CLR,,0.00,WeatherDisplay:10.37,2013-06-20 01:32:00,
2013-06-19 21:35:00,56.5,30.5,30.04,ESE,112,0.0,0.0,37,0.00,CLR,,0.00,WeatherDisplay:10.37,2013-06-20 01:35:00,
2013-06-19 21:37:00,56.3,31.0,30.04,ESE,112,0.0,0.0,38,0.00,CLR,,0.00,WeatherDisplay:10.37,2013-06-20 01:37:00,
2013-06-19 21:40:00,56.3,31.0,30.04,ESE,112,0.0,0.0,38,0.00,CLR,,0.00,WeatherDisplay:10.37,2013-06-20 01:40:00,
2013-06-19 21:41:00,56.3,31.6,30.04,ESE,112,0.0,0.0,39,0.00,CLR,,0.00,WeatherDisplay:10.37,2013-06-20 01:41:00,
2013-06-19 21:42:00,56.1,30.8,30.04,ESE,112,0.0,0.0,38,0.00,CLR,,0.00,WeatherDisplay:10.37,2013-06-20 01:42:00,
2013-06-19 21:43:00,56.1,30.8,30.04,ESE,112,0.0,0.0,38,0.00,CLR,,0.00,WeatherDisplay:10.37,2013-06-20 01:43:00,
2013-06-19 21:45:00,55.9,31.3,30.04,ESE,112,0.0,0.0,39,0.00,CLR,,0.00,WeatherDisplay:10.37,2013-06-20 01:45:00,
2013-06-19 21:46:00,55.9,31.3,30.04,ESE,112,0.0,0.0,39,0.00,CLR,,0.00,WeatherDisplay:10.37,2013-06-20 01:46:00,
2013-06-19 21:48:00,55.9,31.3,30.04,ESE,112,0.0,0.0,39,0.00,CLR,,0.00,WeatherDisplay:10.37,2013-06-20 01:48:00,
2013-06-19 21:50:00,55.9,31.3,30.04,ESE,112,0.0,0.0,39,0.00,CLR,,0.00,WeatherDisplay:10.37,2013-06-20 01:50:00,
2013-06-19 21:51:00,55.9,31.3,30.04,ESE,112,0.0,0.0,39,0.00,CLR,,0.00,WeatherDisplay:10.37,2013-06-20 01:51:00,
2013-06-19 21:53:00,55.8,31.8,30.04,ESE,112,0.0,0.0,40,0.00,CLR,,0.00,WeatherDisplay:10.37,2013-06-20 01:53:00,
2013-06-19 21:56:00,55.6,32.2,30.04,ESE,112,0.0,0.0,41,0.00,CLR,,0.00,WeatherDisplay:10.37,2013-06-20 01:56:00,
2013-06-19 21:58:00,55.6,32.2,30.04,ESE,112,0.0,0.0,41,0.00,CLR,,0.00,WeatherDisplay:10.37,2013-06-20 01:58:00,
2013-06-19 22:01:00,55.2,32.5,30.04,ESE,112,0.0,0.0,42,0.00,CLR,,0.00,WeatherDisplay:10.37,2013-06-20 02:01:00,
2013-06-19 22:03:00,55.2,32.5,30.04,ESE,112,0.0,0.0,42,0.00,CLR,,0.00,WeatherDisplay:10.37,2013-06-20 02:03:00,
2013-06-19 22:04:00,55.2,31.9,30.04,ESE,112,0.0,0.0,41,0.00,CLR,,0.00,WeatherDisplay:10.37,2013-06-20 02:04:00,
2013-06-19 22:06:00,55.0,31.7,30.04,ESE,112,0.0,0.0,41,0.00,CLR,,0.00,WeatherDisplay:10.37,2013-06-20 02:06:00,
2013-06-19 22:07:00,55.0,31.7,30.04,ESE,112,0.0,0.0,41,0.00,CLR,,0.00,WeatherDisplay:10.37,2013-06-20 02:07:00,
2013-06-19 22:08:00,55.0,32.3,30.04,ESE,112,0.0,0.0,42,0.00,CLR,,0.00,WeatherDisplay:10.37,2013-06-20 02:08:00,
2013-06-19 22:09:00,54.9,32.2,30.04,ESE,112,0.0,0.0,42,0.00,CLR,,0.00,WeatherDisplay:10.37,2013-06-20 02:09:00,
2013-06-19 22:11:00,54.9,32.2,30.04,ESE,112,0.0,0.0,42,0.00,CLR,,0.00,WeatherDisplay:10.37,2013-06-20 02:11:00,
2013-06-19 22:12:00,54.7,32.0,30.04,ESE,112,0.0,0.0,42,0.00,CLR,,0.00,WeatherDisplay:10.37,2013-06-20 02:12:00,
2013-06-19 22:13:00,54.7,32.6,30.01,ESE,112,0.0,0.0,43,0.00,CLR,,0.00,WeatherDisplay:10.37,2013-06-20 02:13:00,
2013-06-19 22:14:00,54.5,32.4,30.01,ESE,112,0.0,0.0,43,0.00,CLR,,0.00,WeatherDisplay:10.37,2013-06-20 02:14:00,
2013-06-19 22:16:00,54.5,32.4,30.01,ESE,112,0.0,0.0,43,0.00,CLR,,0.00,WeatherDisplay:10.37,2013-06-20 02:16:00,
2013-06-19 22:17:00,54.5,32.4,30.01,ESE,112,0.0,0.0,43,0.00,CLR,,0.00,WeatherDisplay:10.37,2013-06-20 02:17:00,
2013-06-19 22:19:00,54.5,31.9,30.01,ESE,112,0.0,0.0,42,0.00,CLR,,0.00,WeatherDisplay:10.37,2013-06-20 02:19:00,
2013-06-19 22:22:00,54.1,32.1,30.01,ESE,112,0.0,0.0,43,0.00,CLR,,0.00,WeatherDisplay:10.37,2013-06-20 02:22:00,
2013-06-19 22:24:00,54.0,32.0,30.01,ESE,112,0.0,0.0,43,0.00,CLR,,0.00,WeatherDisplay:10.37,2013-06-20 02:24:00,
2013-06-19 22:27:00,54.0,32.5,30.01,ESE,112,0.0,0.0,44,0.00,CLR,,0.00,WeatherDisplay:10.37,2013-06-20 02:27:00,
2013-06-19 22:29:00,53.8,32.4,30.01,ESE,112,0.0,0.0,44,0.00,CLR,,0.00,WeatherDisplay:10.37,2013-06-20 02:29:00,
2013-06-19 22:30:00,53.8,32.4,30.01,ESE,112,0.0,0.0,44,0.00,CLR,,0.00,WeatherDisplay:10.37,2013-06-20 02:30:00,
2013-06-19 22:32:00,53.6,32.8,30.01,ESE,112,0.0,0.0,45,0.00,CLR,,0.00,WeatherDisplay:10.37,2013-06-20 02:32:00,
2013-06-19 22:34:00,53.6,33.3,30.01,ESE,112,0.0,0.0,46,0.00,CLR,,0.00,WeatherDisplay:10.37,2013-06-20 02:34:00,
2013-06-19 22:35:00,53.6,33.3,30.01,ESE,112,0.0,0.0,46,0.00,CLR,,0.00,WeatherDisplay:10.37,2013-06-20 02:35:00,
2013-06-19 22:37:00,53.4,33.7,30.01,ESE,112,0.0,0.0,47,0.00,CLR,,0.00,WeatherDisplay:10.37,2013-06-20 02:37:00,
2013-06-19 22:39:00,53.6,33.8,30.01,ESE,112,0.0,0.0,47,0.00,CLR,,0.00,WeatherDisplay:10.37,2013-06-20 02:39:00,
2013-06-19 22:40:00,53.6,33.8,30.01,ESE,112,0.0,0.0,47,0.00,CLR,,0.00,WeatherDisplay:10.37,2013-06-20 02:40:00,
2013-06-19 22:42:00,53.6,33.8,30.01,ESE,112,0.0,0.0,47,0.00,CLR,,0.00,WeatherDisplay:10.37,2013-06-20 02:42:00,
2013-06-19 22:43:00,53.6,34.4,30.04,ESE,112,0.0,0.0,48,0.00,CLR,,0.00,WeatherDisplay:10.37,2013-06-20 02:43:00,
2013-06-19 22:44:00,53.4,34.2,30.04,ESE,112,0.0,0.0,48,0.00,CLR,,0.00,WeatherDisplay:10.37,2013-06-20 02:44:00,
2013-06-19 22:46:00,53.4,34.2,30.04,ESE,112,0.0,0.0,48,0.00,CLR,,0.00,WeatherDisplay:10.37,2013-06-20 02:46:00,
2013-06-19 22:48:00,53.4,34.7,30.04,ESE,112,0.0,0.0,49,0.00,CLR,,0.00,WeatherDisplay:10.37,2013-06-20 02:48:00,
2013-06-19 22:49:00,53.4,35.2,30.04,ESE,112,0.0,0.0,50,0.00,CLR,,0.00,WeatherDisplay:10.37,2013-06-20 02:49:00,
2013-06-19 22:51:00,53.2,35.1,30.04,ESE,112,0.0,0.0,50,0.00,CLR,,0.00,WeatherDisplay:10.37,2013-06-20 02:51:00,
2013-06-19 22:53:00,53.2,35.1,30.04,ESE,112,0.0,0.0,50,0.00,CLR,,0.00,WeatherDisplay:10.37,2013-06-20 02:53:00,
2013-06-19 22:55:00,53.1,35.4,30.04,ESE,112,0.0,0.0,51,0.00,CLR,,0.00,WeatherDisplay:10.37,2013-06-20 02:55:00,
2013-06-19 22:56:00,53.1,35.4,30.04,ESE,112,0.0,0.0,51,0.00,CLR,,0.00,WeatherDisplay:10.37,2013-06-20 02:56:00,
2013-06-19 22:58:00,53.1,35.4,30.04,ESE,112,0.0,0.0,51,0.00,CLR,,0.00,WeatherDisplay:10.37,2013-06-20 02:58:00,
2013-06-19 22:59:00,53.1,35.4,30.04,ESE,112,0.0,0.0,51,0.00,CLR,,0.00,WeatherDisplay:10.37,2013-06-20 02:59:00,
2013-06-19 23:00:00,52.9,35.2,30.04,ESE,112,0.0,0.0,51,0.00,CLR,,0.00,WeatherDisplay:10.37,2013-06-20 03:00:00,
2013-06-19 23:01:00,52.9,35.7,30.04,ESE,112,0.0,0.0,52,0.00,CLR,,0.00,WeatherDisplay:10.37,2013-06-20 03:01:00,
2013-06-19 23:03:00,52.9,35.2,30.04,ESE,112,0.0,0.0,51,0.00,CLR,,0.00,WeatherDisplay:10.37,2013-06-20 03:03:00,
2013-06-19 23:04:00,52.9,35.2,30.04,ESE,112,0.0,0.0,51,0.00,CLR,,0.00,WeatherDisplay:10.37,2013-06-20 03:04:00,
2013-06-19 23:05:00,52.9,35.2,30.04,ESE,112,0.0,0.0,51,0.00,CLR,,0.00,WeatherDisplay:10.37,2013-06-20 03:05:00,
2013-06-19 23:06:00,52.9,35.2,30.04,ESE,112,0.0,0.0,51,0.00,CLR,,0.00,WeatherDisplay:10.37,2013-06-20 03:06:00,
2013-06-19 23:08:00,52.7,35.6,30.04,ESE,112,0.0,0.0,52,0.00,CLR,,0.00,WeatherDisplay:10.37,2013-06-20 03:08:00,
2013-06-19 23:09:00,52.7,35.6,30.04,ESE,112,0.0,0.0,52,0.00,CLR,,0.00,WeatherDisplay:10.37,2013-06-20 03:09:00,
2013-06-19 23:10:00,52.7,35.6,30.04,ESE,112,0.0,0.0,52,0.00,CLR,,0.00,WeatherDisplay:10.37,2013-06-20 03:10:00,
2013-06-19 23:11:00,52.5,35.4,30.04,ESE,112,0.0,0.0,52,0.00,CLR,,0.00,WeatherDisplay:10.37,2013-06-20 03:11:00,
2013-06-19 23:13:00,52.5,35.9,30.04,ESE,112,0.0,0.0,53,0.00,CLR,,0.00,WeatherDisplay:10.37,2013-06-20 03:13:00,
2013-06-19 23:14:00,52.5,35.9,30.04,ESE,112,0.0,0.0,53,0.00,CLR,,0.00,WeatherDisplay:10.37,2013-06-20 03:14:00,
2013-06-19 23:15:00,52.7,36.0,30.04,ESE,112,0.0,0.0,53,0.00,CLR,,0.00,WeatherDisplay:10.37,2013-06-20 03:15:00,
2013-06-19 23:16:00,52.7,35.6,30.04,ESE,112,0.0,0.0,52,0.00,CLR,,0.00,WeatherDisplay:10.37,2013-06-20 03:16:00,
2013-06-19 23:19:00,52.5,35.9,30.04,ESE,112,0.0,0.0,53,0.00,CLR,,0.00,WeatherDisplay:10.37,2013-06-20 03:19:00,
2013-06-19 23:20:00,52.5,35.9,30.04,ESE,112,0.0,0.0,53,0.00,CLR,,0.00,WeatherDisplay:10.37,2013-06-20 03:20:00,
2013-06-19 23:21:00,52.5,36.3,30.04,ESE,112,0.0,0.0,54,0.00,CLR,,0.00,WeatherDisplay:10.37,2013-06-20 03:21:00,
2013-06-19 23:24:00,52.2,35.5,30.04,ESE,112,0.0,0.0,53,0.00,CLR,,0.00,WeatherDisplay:10.37,2013-06-20 03:24:00,
2013-06-19 23:25:00,52.2,35.5,30.04,ESE,112,0.0,0.0,53,0.00,CLR,,0.00,WeatherDisplay:10.37,2013-06-20 03:25:00,
2013-06-19 23:26:00,52.0,35.8,30.04,ESE,112,0.0,0.0,54,0.00,CLR,,0.00,WeatherDisplay:10.37,2013-06-20 03:26:00,
2013-06-19 23:29:00,52.0,36.3,30.04,ESE,112,0.0,0.0,55,0.00,CLR,,0.00,WeatherDisplay:10.37,2013-06-20 03:29:00,
2013-06-19 23:30:00,52.0,36.3,30.04,ESE,112,0.0,0.0,55,0.00,CLR,,0.00,WeatherDisplay:10.37,2013-06-20 03:30:00,
2013-06-19 23:31:00,52.0,36.3,30.04,ESE,112,0.0,0.0,55,0.00,CLR,,0.00,WeatherDisplay:10.37,2013-06-20 03:31:00,
2013-06-19 23:35:00,51.6,36.4,30.04,ESE,112,0.0,0.0,56,0.00,CLR,,0.00,WeatherDisplay:10.37,2013-06-20 03:35:00,
2013-06-19 23:36:00,51.6,36.0,30.04,ESE,112,0.0,0.0,55,0.00,CLR,,0.00,WeatherDisplay:10.37,2013-06-20 03:36:00,
2013-06-19 23:37:00,51.6,36.4,30.04,ESE,112,0.0,0.0,56,0.00,CLR,,0.00,WeatherDisplay:10.37,2013-06-20 03:37:00,
2013-06-19 23:40:00,51.6,36.9,30.04,ESE,112,0.0,0.0,57,0.00,CLR,,0.00,WeatherDisplay:10.37,2013-06-20 03:40:00,
2013-06-19 23:41:00,51.6,36.9,30.04,ESE,112,0.0,0.0,57,0.00,CLR,,0.00,WeatherDisplay:10.37,2013-06-20 03:41:00,
2013-06-19 23:42:00,51.6,36.4,30.04,ESE,112,0.0,0.0,56,0.00,CLR,,0.00,WeatherDisplay:10.37,2013-06-20 03:42:00,
2013-06-19 23:45:00,51.6,36.9,30.04,ESE,112,0.0,0.0,57,0.00,CLR,,0.00,WeatherDisplay:10.37,2013-06-20 03:45:00,
2013-06-19 23:46:00,51.6,36.9,30.04,ESE,112,0.0,0.0,57,0.00,CLR,,0.00,WeatherDisplay:10.37,2013-06-20 03:46:00,
2013-06-19 23:47:00,51.6,36.9,30.04,ESE,112,0.0,0.0,57,0.00,CLR,,0.00,WeatherDisplay:10.37,2013-06-20 03:47:00,
2013-06-19 23:50:00,51.6,37.3,30.04,ESE,112,0.0,0.0,58,0.00,CLR,,0.00,WeatherDisplay:10.37,2013-06-20 03:50:00,
2013-06-19 23:51:00,51.6,37.3,30.04,ESE,112,0.0,0.0,58,0.00,CLR,,0.00,WeatherDisplay:10.37,2013-06-20 03:51:00,
2013-06-19 23:52:00,51.6,37.7,30.04,ESE,112,0.0,0.0,59,0.00,CLR,,0.00,WeatherDisplay:10.37,2013-06-20 03:52:00,
2013-06-19 23:55:00,51.6,37.7,30.04,ESE,112,0.0,0.0,59,0.00,CLR,,0.00,WeatherDisplay:10.37,2013-06-20 03:55:00,
2013-06-19 23:56:00,51.6,37.7,30.04,ESE,112,0.0,0.0,59,0.00,CLR,,0.00,WeatherDisplay:10.37,2013-06-20 03:56:00,
2013-06-19 23:57:00,51.6,37.7,30.04,ESE,112,0.0,0.0,59,0.00,CLR,,0.00,WeatherDisplay:10.37,2013-06-20 03:57:00,